Time,TemperatureF,DewpointF,PressureIn,WindDirection,WindDirectionDegrees,WindSpeedMPH,WindSpeedGustMPH,Humidity,HourlyPrecipIn,Conditions,Clouds,dailyrainin,SoftwareType,DateUTC
2013-09-24 00:01:00,52.2,46.9,29.26,ESE,116,3.0,8.0,82,0.00,,,0.00,WUHU216DAVISVP2,2013-09-24 04:01:00,
2013-09-24 00:06:00,52.1,46.8,29.25,SE,126,4.0,8.0,82,0.00,,,0.00,WUHU216DAVISVP2,2013-09-24 04:06:00,
2013-09-24 00:11:00,51.9,46.6,29.25,SE,134,7.0,8.0,82,0.00,,,0.00,WUHU216DAVISVP2,2013-09-24 04:11:00,
2013-09-24 00:16:00,51.8,46.8,29.25,ESE,116,4.0,9.0,83,0.00,,,0.00,WUHU216DAVISVP2,2013-09-24 04:16:00,
2013-09-24 00:21:00,51.7,46.7,29.25,ESE,105,1.0,9.0,83,0.00,,,0.00,WUHU216DAVISVP2,2013-09-24 04:21:00,
2013-09-24 00:22:00,51.6,46.6,29.25,ESE,105,0.0,9.0,83,0.00,,,0.00,WUHU216DAVISVP2,2013-09-24 04:22:00,
2013-09-24 00:26:00,51.5,46.5,29.25,ESE,108,0.0,9.0,83,0.00,,,0.00,WUHU216DAVISVP2,2013-09-24 04:26:00,
2013-09-24 00:27:00,51.5,46.8,29.25,ESE,108,0.0,9.0,84,0.00,,,0.00,WUHU216DAVISVP2,2013-09-24 04:27:00,
2013-09-24 00:31:00,51.4,46.7,29.25,ESE,121,2.0,9.0,84,0.00,,,0.00,WUHU216DAVISVP2,2013-09-24 04:31:00,
2013-09-24 00:32:00,51.4,46.7,29.25,SE,126,4.0,9.0,84,0.00,,,0.00,WUHU216DAVISVP2,2013-09-24 04:32:00,
2013-09-24 00:36:00,51.3,46.6,29.25,ESE,104,4.0,6.0,84,0.00,,,0.00,WUHU216DAVISVP2,2013-09-24 04:36:00,
2013-09-24 00:37:00,51.3,46.6,29.25,SE,132,4.0,6.0,84,0.00,,,0.00,WUHU216DAVISVP2,2013-09-24 04:37:00,
2013-09-24 00:41:00,51.2,46.5,29.25,ESE,119,2.0,5.0,84,0.00,,,0.00,WUHU216DAVISVP2,2013-09-24 04:41:00,
2013-09-24 00:42:00,51.2,46.5,29.25,ESE,116,0.0,5.0,84,0.00,,,0.00,WUHU216DAVISVP2,2013-09-24 04:42:00,
2013-09-24 00:43:00,51.2,46.5,29.25,ESE,116,0.0,5.0,84,0.00,,,0.00,WUHU216DAVISVP2,2013-09-24 04:43:00,
2013-09-24 00:46:00,51.1,46.4,29.25,ESE,111,0.0,5.0,84,0.00,,,0.00,WUHU216DAVISVP2,2013-09-24 04:46:00,
2013-09-24 00:47:00,51.1,46.7,29.25,ESE,111,0.0,5.0,85,0.00,,,0.00,WUHU216DAVISVP2,2013-09-24 04:47:00,
2013-09-24 00:48:00,51.1,46.7,29.25,ESE,114,2.0,5.0,85,0.00,,,0.00,WUHU216DAVISVP2,2013-09-24 04:48:00,
2013-09-24 00:51:00,51.0,46.6,29.25,East,90,1.0,5.0,85,0.00,,,0.00,WUHU216DAVISVP2,2013-09-24 04:51:00,
2013-09-24 00:52:00,51.0,46.6,29.25,ESE,108,0.0,5.0,85,0.00,,,0.00,WUHU216DAVISVP2,2013-09-24 04:52:00,
2013-09-24 00:53:00,51.0,46.6,29.25,ESE,108,0.0,5.0,85,0.00,,,0.00,WUHU216DAVISVP2,2013-09-24 04:53:00,
2013-09-24 00:56:00,50.9,46.5,29.25,ESE,112,0.0,5.0,85,0.00,,,0.00,WUHU216DAVISVP2,2013-09-24 04:56:00,
2013-09-24 00:57:00,50.9,46.5,29.25,SE,137,2.0,5.0,85,0.00,,,0.00,WUHU216DAVISVP2,2013-09-24 04:57:00,
2013-09-24 00:58:00,50.9,46.5,29.25,SE,138,1.0,5.0,85,0.00,,,0.00,WUHU216DAVISVP2,2013-09-24 04:58:00,
2013-09-24 01:01:00,50.8,46.4,29.25,East,101,2.0,5.0,85,0.00,,,0.00,WUHU216DAVISVP2,2013-09-24 05:01:00,
2013-09-24 01:02:00,50.8,46.4,29.25,ESE,104,4.0,5.0,85,0.00,,,0.00,WUHU216DAVISVP2,2013-09-24 05:02:00,
2013-09-24 01:03:00,50.7,46.3,29.25,ESE,122,2.0,5.0,85,0.00,,,0.00,WUHU216DAVISVP2,2013-09-24 05:03:00,
2013-09-24 01:07:00,50.7,46.3,29.25,East,100,7.0,8.0,85,0.00,,,0.00,WUHU216DAVISVP2,2013-09-24 05:07:00,
2013-09-24 01:08:00,50.6,46.3,29.25,East,94,2.0,8.0,85,0.00,,,0.00,WUHU216DAVISVP2,2013-09-24 05:08:00,
2013-09-24 01:12:00,50.6,46.3,29.25,East,95,6.0,9.0,85,0.00,,,0.00,WUHU216DAVISVP2,2013-09-24 05:12:00,
2013-09-24 01:13:00,50.6,46.3,29.25,SE,127,1.0,9.0,85,0.00,,,0.00,WUHU216DAVISVP2,2013-09-24 05:13:00,
2013-09-24 01:14:00,50.6,46.3,29.25,SE,126,0.0,9.0,85,0.00,,,0.00,WUHU216DAVISVP2,2013-09-24 05:14:00,
2013-09-24 01:17:00,50.5,46.2,29.25,ESE,120,5.0,9.0,85,0.00,,,0.00,WUHU216DAVISVP2,2013-09-24 05:17:00,
2013-09-24 01:18:00,50.5,46.2,29.25,ESE,104,6.0,9.0,85,0.00,,,0.00,WUHU216DAVISVP2,2013-09-24 05:18:00,
2013-09-24 01:19:00,50.5,46.2,29.25,ESE,121,7.0,9.0,85,0.00,,,0.00,WUHU216DAVISVP2,2013-09-24 05:19:00,
2013-09-24 01:22:00,50.4,46.1,29.25,ESE,112,2.0,9.0,85,0.00,,,0.00,WUHU216DAVISVP2,2013-09-24 05:22:00,
2013-09-24 01:23:00,50.4,46.1,29.25,ESE,104,2.0,9.0,85,0.00,,,0.00,WUHU216DAVISVP2,2013-09-24 05:23:00,
2013-09-24 01:24:00,50.3,46.0,29.25,ESE,108,1.0,9.0,85,0.00,,,0.00,WUHU216DAVISVP2,2013-09-24 05:24:00,
2013-09-24 01:27:00,50.2,46.2,29.25,ESE,109,2.0,9.0,86,0.00,,,0.00,WUHU216DAVISVP2,2013-09-24 05:27:00,
2013-09-24 01:28:00,50.2,46.2,29.25,ESE,108,2.0,9.0,86,0.00,,,0.00,WUHU216DAVISVP2,2013-09-24 05:28:00,
2013-09-24 01:29:00,50.2,46.2,29.25,SE,128,6.0,8.0,86,0.00,,,0.00,WUHU216DAVISVP2,2013-09-24 05:29:00,
2013-09-24 01:32:00,50.1,46.1,29.25,ESE,110,2.0,8.0,86,0.00,,,0.00,WUHU216DAVISVP2,2013-09-24 05:32:00,
2013-09-24 01:33:00,50.1,46.1,29.25,ESE,104,3.0,8.0,86,0.00,,,0.00,WUHU216DAVISVP2,2013-09-24 05:33:00,
2013-09-24 01:34:00,50.1,46.1,29.25,ESE,104,0.0,8.0,86,0.00,,,0.00,WUHU216DAVISVP2,2013-09-24 05:34:00,
2013-09-24 01:37:00,50.0,46.0,29.25,ESE,104,3.0,8.0,86,0.00,,,0.00,WUHU216DAVISVP2,2013-09-24 05:37:00,
2013-09-24 01:38:00,50.0,46.0,29.25,ESE,120,6.0,8.0,86,0.00,,,0.00,WUHU216DAVISVP2,2013-09-24 05:38:00,
2013-09-24 01:39:00,49.9,45.9,29.25,ESE,114,4.0,8.0,86,0.00,,,0.00,WUHU216DAVISVP2,2013-09-24 05:39:00,
2013-09-24 01:40:00,49.9,45.9,29.25,ESE,108,2.0,8.0,86,0.00,,,0.00,WUHU216DAVISVP2,2013-09-24 05:40:00,
2013-09-24 01:42:00,49.9,45.9,29.25,ESE,120,0.0,8.0,86,0.00,,,0.00,WUHU216DAVISVP2,2013-09-24 05:42:00,
2013-09-24 01:43:00,49.9,45.9,29.25,ESE,106,1.0,8.0,86,0.00,,,0.00,WUHU216DAVISVP2,2013-09-24 05:43:00,
2013-09-24 01:44:00,49.9,45.9,29.25,ESE,123,2.0,8.0,86,0.00,,,0.00,WUHU216DAVISVP2,2013-09-24 05:44:00,
2013-09-24 01:45:00,49.9,45.9,29.25,ESE,108,4.0,8.0,86,0.00,,,0.00,WUHU216DAVISVP2,2013-09-24 05:45:00,
2013-09-24 01:47:00,49.8,45.8,29.25,East,86,4.0,8.0,86,0.00,,,0.00,WUHU216DAVISVP2,2013-09-24 05:47:00,
2013-09-24 01:49:00,49.8,46.1,29.25,ESE,122,6.0,8.0,87,0.00,,,0.00,WUHU216DAVISVP2,2013-09-24 05:49:00,
2013-09-24 01:51:00,49.7,46.0,29.25,East,96,2.0,8.0,87,0.00,,,0.00,WUHU216DAVISVP2,2013-09-24 05:51:00,
2013-09-24 01:52:00,49.7,46.0,29.25,ESE,103,5.0,8.0,87,0.00,,,0.00,WUHU216DAVISVP2,2013-09-24 05:52:00,
2013-09-24 01:54:00,49.7,46.0,29.25,ESE,110,2.0,8.0,87,0.00,,,0.00,WUHU216DAVISVP2,2013-09-24 05:54:00,
2013-09-24 01:56:00,49.7,45.7,29.25,ESE,114,5.0,8.0,86,0.00,,,0.00,WUHU216DAVISVP2,2013-09-24 05:56:00,
2013-09-24 01:57:00,49.6,45.9,29.25,ESE,110,5.0,7.0,87,0.00,,,0.00,WUHU216DAVISVP2,2013-09-24 05:57:00,
2013-09-24 01:59:00,49.6,45.9,29.25,East,97,3.0,8.0,87,0.00,,,0.00,WUHU216DAVISVP2,2013-09-24 05:59:00,
2013-09-24 02:00:00,49.6,45.9,29.25,ESE,112,4.0,8.0,87,0.00,,,0.00,WUHU216DAVISVP2,2013-09-24 06:00:00,
2013-09-24 02:01:00,49.6,45.9,29.25,ESE,113,6.0,8.0,87,0.00,,,0.00,WUHU216DAVISVP2,2013-09-24 06:01:00,
2013-09-24 02:03:00,49.6,45.9,29.25,East,89,2.0,8.0,87,0.00,,,0.00,WUHU216DAVISVP2,2013-09-24 06:03:00,
2013-09-24 02:04:00,49.5,45.8,29.25,ESE,107,4.0,8.0,87,0.00,,,0.00,WUHU216DAVISVP2,2013-09-24 06:04:00,
2013-09-24 02:06:00,49.5,45.8,29.25,SE,136,3.0,8.0,87,0.00,,,0.00,WUHU216DAVISVP2,2013-09-24 06:06:00,
2013-09-24 02:08:00,49.5,45.8,29.25,SE,125,5.0,8.0,87,0.00,,,0.00,WUHU216DAVISVP2,2013-09-24 06:08:00,
2013-09-24 02:09:00,49.4,45.7,29.25,ESE,122,5.0,8.0,87,0.00,,,0.00,WUHU216DAVISVP2,2013-09-24 06:09:00,
2013-09-24 02:10:00,49.4,45.7,29.25,ESE,118,1.0,8.0,87,0.00,,,0.00,WUHU216DAVISVP2,2013-09-24 06:10:00,
2013-09-24 02:11:00,49.4,45.7,29.25,ESE,110,4.0,8.0,87,0.00,,,0.00,WUHU216DAVISVP2,2013-09-24 06:11:00,
2013-09-24 02:13:00,49.4,45.7,29.25,ESE,105,2.0,8.0,87,0.00,,,0.00,WUHU216DAVISVP2,2013-09-24 06:13:00,
2013-09-24 02:15:00,49.4,45.7,29.25,ESE,118,3.0,8.0,87,0.00,,,0.00,WUHU216DAVISVP2,2013-09-24 06:15:00,
2013-09-24 02:16:00,49.4,45.7,29.25,ESE,116,1.0,8.0,87,0.00,,,0.00,WUHU216DAVISVP2,2013-09-24 06:16:00,
2013-09-24 02:18:00,49.3,45.6,29.25,ESE,114,4.0,8.0,87,0.00,,,0.00,WUHU216DAVISVP2,2013-09-24 06:18:00,
2013-09-24 02:20:00,49.3,45.6,29.25,SE,137,1.0,8.0,87,0.00,,,0.00,WUHU216DAVISVP2,2013-09-24 06:20:00,
2013-09-24 02:21:00,49.2,45.5,29.25,ESE,116,2.0,8.0,87,0.00,,,0.00,WUHU216DAVISVP2,2013-09-24 06:21:00,
2013-09-24 02:23:00,49.2,45.5,29.25,ESE,121,2.0,8.0,87,0.00,,,0.00,WUHU216DAVISVP2,2013-09-24 06:23:00,
2013-09-24 02:25:00,49.1,45.4,29.25,ESE,110,2.0,8.0,87,0.00,,,0.00,WUHU216DAVISVP2,2013-09-24 06:25:00,
2013-09-24 02:26:00,49.1,45.4,29.25,ESE,118,6.0,8.0,87,0.00,,,0.00,WUHU216DAVISVP2,2013-09-24 06:26:00,
2013-09-24 02:27:00,49.1,45.4,29.25,ESE,109,7.0,8.0,87,0.00,,,0.00,WUHU216DAVISVP2,2013-09-24 06:27:00,
2013-09-24 02:28:00,49.1,45.4,29.25,ESE,121,1.0,7.0,87,0.00,,,0.00,WUHU216DAVISVP2,2013-09-24 06:28:00,
2013-09-24 02:30:00,49.0,45.6,29.25,ESE,103,3.0,7.0,88,0.00,,,0.00,WUHU216DAVISVP2,2013-09-24 06:30:00,
2013-09-24 02:31:00,49.0,45.6,29.25,ESE,120,2.0,7.0,88,0.00,,,0.00,WUHU216DAVISVP2,2013-09-24 06:31:00,
2013-09-24 02:32:00,48.9,45.5,29.25,ESE,110,6.0,7.0,88,0.00,,,0.00,WUHU216DAVISVP2,2013-09-24 06:32:00,
2013-09-24 02:33:00,48.9,45.5,29.25,ESE,118,5.0,7.0,88,0.00,,,0.00,WUHU216DAVISVP2,2013-09-24 06:33:00,
2013-09-24 02:35:00,48.8,45.4,29.25,ESE,107,7.0,7.0,88,0.00,,,0.00,WUHU216DAVISVP2,2013-09-24 06:35:00,
2013-09-24 02:36:00,48.8,45.4,29.25,ESE,117,4.0,7.0,88,0.00,,,0.00,WUHU216DAVISVP2,2013-09-24 06:36:00,
2013-09-24 02:37:00,48.8,45.4,29.25,ESE,102,4.0,7.0,88,0.00,,,0.00,WUHU216DAVISVP2,2013-09-24 06:37:00,
2013-09-24 02:38:00,48.7,45.3,29.25,ESE,111,2.0,7.0,88,0.00,,,0.00,WUHU216DAVISVP2,2013-09-24 06:38:00,
2013-09-24 02:40:00,48.7,45.3,29.26,ESE,111,2.0,7.0,88,0.00,,,0.00,WUHU216DAVISVP2,2013-09-24 06:40:00,
2013-09-24 02:41:00,48.7,45.3,29.26,ESE,111,2.0,7.0,88,0.00,,,0.00,WUHU216DAVISVP2,2013-09-24 06:41:00,
2013-09-24 02:42:00,48.7,45.3,29.26,East,95,5.0,7.0,88,0.00,,,0.00,WUHU216DAVISVP2,2013-09-24 06:42:00,
2013-09-24 02:44:00,48.6,45.2,29.26,ESE,110,5.0,7.0,88,0.00,,,0.00,WUHU216DAVISVP2,2013-09-24 06:44:00,
2013-09-24 02:46:00,48.5,45.4,29.26,ESE,108,2.0,7.0,89,0.00,,,0.00,WUHU216DAVISVP2,2013-09-24 06:46:00,
2013-09-24 02:47:00,48.5,45.4,29.26,ESE,107,2.0,7.0,89,0.00,,,0.00,WUHU216DAVISVP2,2013-09-24 06:47:00,
2013-09-24 02:49:00,48.5,45.4,29.25,ESE,120,3.0,7.0,89,0.00,,,0.00,WUHU216DAVISVP2,2013-09-24 06:49:00,
2013-09-24 02:51:00,48.4,45.3,29.25,ESE,113,2.0,7.0,89,0.00,,,0.00,WUHU216DAVISVP2,2013-09-24 06:51:00,
2013-09-24 02:52:00,48.4,45.3,29.25,SE,127,4.0,7.0,89,0.00,,,0.00,WUHU216DAVISVP2,2013-09-24 06:52:00,
2013-09-24 02:54:00,48.3,45.2,29.25,East,99,4.0,7.0,89,0.00,,,0.00,WUHU216DAVISVP2,2013-09-24 06:54:00,
2013-09-24 02:56:00,48.3,45.2,29.25,ESE,111,4.0,6.0,89,0.00,,,0.00,WUHU216DAVISVP2,2013-09-24 06:56:00,
2013-09-24 02:57:00,48.2,45.1,29.26,ESE,105,4.0,6.0,89,0.00,,,0.00,WUHU216DAVISVP2,2013-09-24 06:57:00,
2013-09-24 02:59:00,48.2,45.1,29.26,ESE,110,3.0,6.0,89,0.00,,,0.00,WUHU216DAVISVP2,2013-09-24 06:59:00,
2013-09-24 03:01:00,48.1,45.3,29.26,ESE,112,3.0,6.0,90,0.00,,,0.00,WUHU216DAVISVP2,2013-09-24 07:01:00,
2013-09-24 03:02:00,48.1,45.3,29.25,ESE,104,5.0,6.0,90,0.00,,,0.00,WUHU216DAVISVP2,2013-09-24 07:02:00,
2013-09-24 03:04:00,48.1,45.3,29.25,East,100,4.0,7.0,90,0.00,,,0.00,WUHU216DAVISVP2,2013-09-24 07:04:00,
2013-09-24 03:05:00,48.1,45.3,29.25,ESE,116,5.0,7.0,90,0.00,,,0.00,WUHU216DAVISVP2,2013-09-24 07:05:00,
2013-09-24 03:06:00,48.0,45.2,29.25,ESE,122,4.0,7.0,90,0.00,,,0.00,WUHU216DAVISVP2,2013-09-24 07:06:00,
2013-09-24 03:07:00,48.0,45.2,29.25,ESE,118,5.0,7.0,90,0.00,,,0.00,WUHU216DAVISVP2,2013-09-24 07:07:00,
2013-09-24 03:09:00,48.0,45.2,29.25,East,100,2.0,7.0,90,0.00,,,0.00,WUHU216DAVISVP2,2013-09-24 07:09:00,
2013-09-24 03:10:00,48.0,45.2,29.25,ESE,119,5.0,7.0,90,0.00,,,0.00,WUHU216DAVISVP2,2013-09-24 07:10:00,
2013-09-24 03:11:00,47.9,45.1,29.25,ESE,112,5.0,7.0,90,0.00,,,0.00,WUHU216DAVISVP2,2013-09-24 07:11:00,
2013-09-24 03:12:00,48.0,45.2,29.25,ESE,112,1.0,7.0,90,0.00,,,0.00,WUHU216DAVISVP2,2013-09-24 07:12:00,
2013-09-24 03:14:00,47.9,45.1,29.25,ESE,116,4.0,7.0,90,0.00,,,0.00,WUHU216DAVISVP2,2013-09-24 07:14:00,
2013-09-24 03:15:00,47.9,45.1,29.25,East,95,4.0,7.0,90,0.00,,,0.00,WUHU216DAVISVP2,2013-09-24 07:15:00,
2013-09-24 03:17:00,47.9,45.1,29.25,ESE,103,3.0,7.0,90,0.00,,,0.00,WUHU216DAVISVP2,2013-09-24 07:17:00,
2013-09-24 03:18:00,47.9,45.1,29.25,East,97,4.0,7.0,90,0.00,,,0.00,WUHU216DAVISVP2,2013-09-24 07:18:00,
2013-09-24 03:19:00,47.9,45.1,29.25,ESE,102,3.0,7.0,90,0.00,,,0.00,WUHU216DAVISVP2,2013-09-24 07:19:00,
2013-09-24 03:21:00,47.9,45.1,29.25,SE,135,5.0,7.0,90,0.00,,,0.00,WUHU216DAVISVP2,2013-09-24 07:21:00,
2013-09-24 03:22:00,47.9,45.1,29.25,ESE,108,5.0,7.0,90,0.00,,,0.00,WUHU216DAVISVP2,2013-09-24 07:22:00,
2013-09-24 03:23:00,47.9,45.1,29.25,ESE,113,5.0,6.0,90,0.00,,,0.00,WUHU216DAVISVP2,2013-09-24 07:23:00,
2013-09-24 03:25:00,47.8,45.0,29.25,ESE,103,6.0,8.0,90,0.00,,,0.00,WUHU216DAVISVP2,2013-09-24 07:25:00,
2013-09-24 03:26:00,47.8,45.0,29.25,East,100,4.0,8.0,90,0.00,,,0.00,WUHU216DAVISVP2,2013-09-24 07:26:00,
2013-09-24 03:27:00,47.8,45.0,29.25,ESE,105,6.0,8.0,90,0.00,,,0.00,WUHU216DAVISVP2,2013-09-24 07:27:00,
2013-09-24 03:28:00,47.8,45.0,29.25,ESE,111,6.0,8.0,90,0.00,,,0.00,WUHU216DAVISVP2,2013-09-24 07:28:00,
2013-09-24 03:30:00,47.8,45.0,29.25,ESE,123,4.0,8.0,90,0.00,,,0.00,WUHU216DAVISVP2,2013-09-24 07:30:00,
2013-09-24 03:31:00,47.7,44.9,29.25,ESE,118,2.0,8.0,90,0.00,,,0.00,WUHU216DAVISVP2,2013-09-24 07:31:00,
2013-09-24 03:32:00,47.8,45.0,29.25,ESE,106,4.0,8.0,90,0.00,,,0.00,WUHU216DAVISVP2,2013-09-24 07:32:00,
2013-09-24 03:33:00,47.7,44.9,29.25,ESE,103,5.0,8.0,90,0.00,,,0.00,WUHU216DAVISVP2,2013-09-24 07:33:00,
2013-09-24 03:35:00,47.7,44.9,29.25,ESE,102,5.0,8.0,90,0.00,,,0.00,WUHU216DAVISVP2,2013-09-24 07:35:00,
2013-09-24 03:36:00,47.7,44.9,29.25,ESE,120,1.0,8.0,90,0.00,,,0.00,WUHU216DAVISVP2,2013-09-24 07:36:00,
2013-09-24 03:37:00,47.6,44.8,29.25,ESE,120,1.0,8.0,90,0.00,,,0.00,WUHU216DAVISVP2,2013-09-24 07:37:00,
2013-09-24 03:38:00,47.7,44.9,29.25,ESE,120,0.0,8.0,90,0.00,,,0.00,WUHU216DAVISVP2,2013-09-24 07:38:00,
2013-09-24 03:41:00,47.6,44.8,29.25,East,84,2.0,8.0,90,0.00,,,0.00,WUHU216DAVISVP2,2013-09-24 07:41:00,
2013-09-24 03:42:00,47.6,44.8,29.25,ESE,107,4.0,8.0,90,0.00,,,0.00,WUHU216DAVISVP2,2013-09-24 07:42:00,
2013-09-24 03:43:00,47.6,44.8,29.25,ESE,108,4.0,8.0,90,0.00,,,0.00,WUHU216DAVISVP2,2013-09-24 07:43:00,
2013-09-24 03:46:00,47.5,44.7,29.25,ESE,116,2.0,7.0,90,0.00,,,0.00,WUHU216DAVISVP2,2013-09-24 07:46:00,
2013-09-24 03:47:00,47.5,44.7,29.25,ESE,115,3.0,7.0,90,0.00,,,0.00,WUHU216DAVISVP2,2013-09-24 07:47:00,
2013-09-24 03:48:00,47.5,45.0,29.25,ESE,111,4.0,7.0,91,0.00,,,0.00,WUHU216DAVISVP2,2013-09-24 07:48:00,
2013-09-24 03:49:00,47.5,45.0,29.25,ESE,105,2.0,7.0,91,0.00,,,0.00,WUHU216DAVISVP2,2013-09-24 07:49:00,
2013-09-24 03:51:00,47.4,44.9,29.25,SE,128,3.0,8.0,91,0.00,,,0.00,WUHU216DAVISVP2,2013-09-24 07:51:00,
2013-09-24 03:52:00,47.4,44.9,29.25,SE,132,4.0,8.0,91,0.00,,,0.00,WUHU216DAVISVP2,2013-09-24 07:52:00,
2013-09-24 03:53:00,47.4,44.9,29.25,ESE,108,5.0,8.0,91,0.00,,,0.00,WUHU216DAVISVP2,2013-09-24 07:53:00,
2013-09-24 03:54:00,47.3,44.8,29.25,ESE,111,2.0,8.0,91,0.00,,,0.00,WUHU216DAVISVP2,2013-09-24 07:54:00,
2013-09-24 03:56:00,47.3,44.8,29.25,ESE,120,7.0,8.0,91,0.00,,,0.00,WUHU216DAVISVP2,2013-09-24 07:56:00,
2013-09-24 03:57:00,47.3,44.8,29.25,ESE,109,3.0,8.0,91,0.00,,,0.00,WUHU216DAVISVP2,2013-09-24 07:57:00,
2013-09-24 03:58:00,47.3,44.8,29.26,ESE,103,1.0,8.0,91,0.00,,,0.00,WUHU216DAVISVP2,2013-09-24 07:58:00,
2013-09-24 03:59:00,47.3,44.8,29.26,ESE,104,1.0,8.0,91,0.00,,,0.00,WUHU216DAVISVP2,2013-09-24 07:59:00,
2013-09-24 04:02:00,47.2,44.7,29.25,ESE,114,2.0,8.0,91,0.00,,,0.00,WUHU216DAVISVP2,2013-09-24 08:02:00,
2013-09-24 04:03:00,47.2,44.7,29.25,ESE,120,2.0,8.0,91,0.00,,,0.00,WUHU216DAVISVP2,2013-09-24 08:03:00,
2013-09-24 04:04:00,47.2,44.7,29.25,ESE,120,5.0,8.0,91,0.00,,,0.00,WUHU216DAVISVP2,2013-09-24 08:04:00,
2013-09-24 04:07:00,47.1,44.6,29.25,East,100,2.0,8.0,91,0.00,,,0.00,WUHU216DAVISVP2,2013-09-24 08:07:00,
2013-09-24 04:08:00,47.1,44.6,29.25,East,100,2.0,8.0,91,0.00,,,0.00,WUHU216DAVISVP2,2013-09-24 08:08:00,
2013-09-24 04:09:00,47.1,44.6,29.25,SE,130,6.0,8.0,91,0.00,,,0.00,WUHU216DAVISVP2,2013-09-24 08:09:00,
2013-09-24 04:10:00,47.1,44.6,29.25,ESE,112,4.0,7.0,91,0.00,,,0.00,WUHU216DAVISVP2,2013-09-24 08:10:00,
2013-09-24 04:12:00,47.0,44.5,29.25,ESE,112,4.0,7.0,91,0.00,,,0.00,WUHU216DAVISVP2,2013-09-24 08:12:00,
2013-09-24 04:13:00,47.0,44.5,29.25,SE,125,2.0,7.0,91,0.00,,,0.00,WUHU216DAVISVP2,2013-09-24 08:13:00,
2013-09-24 04:14:00,47.0,44.5,29.25,ESE,110,2.0,7.0,91,0.00,,,0.00,WUHU216DAVISVP2,2013-09-24 08:14:00,
2013-09-24 04:15:00,47.0,44.5,29.25,SE,128,4.0,7.0,91,0.00,,,0.00,WUHU216DAVISVP2,2013-09-24 08:15:00,
2013-09-24 04:17:00,47.0,44.5,29.25,ESE,122,0.0,7.0,91,0.00,,,0.00,WUHU216DAVISVP2,2013-09-24 08:17:00,
2013-09-24 04:18:00,47.0,44.5,29.25,ESE,103,3.0,7.0,91,0.00,,,0.00,WUHU216DAVISVP2,2013-09-24 08:18:00,
2013-09-24 04:19:00,46.9,44.4,29.25,ESE,104,0.0,7.0,91,0.00,,,0.00,WUHU216DAVISVP2,2013-09-24 08:19:00,
2013-09-24 04:20:00,46.9,44.4,29.25,ESE,104,0.0,7.0,91,0.00,,,0.00,WUHU216DAVISVP2,2013-09-24 08:20:00,
2013-09-24 04:22:00,46.9,44.4,29.25,ESE,110,4.0,7.0,91,0.00,,,0.00,WUHU216DAVISVP2,2013-09-24 08:22:00,
2013-09-24 04:23:00,46.9,44.7,29.26,ESE,114,0.0,6.0,92,0.00,,,0.00,WUHU216DAVISVP2,2013-09-24 08:23:00,
2013-09-24 04:24:00,46.9,44.7,29.25,ESE,114,1.0,6.0,92,0.00,,,0.00,WUHU216DAVISVP2,2013-09-24 08:24:00,
2013-09-24 04:25:00,46.9,44.7,29.25,ESE,114,4.0,6.0,92,0.00,,,0.00,WUHU216DAVISVP2,2013-09-24 08:25:00,
2013-09-24 04:27:00,46.8,44.6,29.25,SE,128,0.0,6.0,92,0.00,,,0.00,WUHU216DAVISVP2,2013-09-24 08:27:00,
2013-09-24 04:28:00,46.8,44.6,29.25,SE,125,1.0,6.0,92,0.00,,,0.00,WUHU216DAVISVP2,2013-09-24 08:28:00,
2013-09-24 04:29:00,46.8,44.6,29.25,ESE,120,5.0,6.0,92,0.00,,,0.00,WUHU216DAVISVP2,2013-09-24 08:29:00,
2013-09-24 04:30:00,46.8,44.3,29.25,ESE,113,5.0,6.0,91,0.00,,,0.00,WUHU216DAVISVP2,2013-09-24 08:30:00,
2013-09-24 04:33:00,46.8,44.6,29.25,ESE,109,2.0,6.0,92,0.00,,,0.00,WUHU216DAVISVP2,2013-09-24 08:33:00,
2013-09-24 04:34:00,46.8,44.6,29.26,ESE,108,0.0,6.0,92,0.00,,,0.00,WUHU216DAVISVP2,2013-09-24 08:34:00,
2013-09-24 04:36:00,46.7,44.5,29.26,ESE,123,3.0,6.0,92,0.00,,,0.00,WUHU216DAVISVP2,2013-09-24 08:36:00,
2013-09-24 04:38:00,46.7,44.5,29.26,ESE,116,0.0,6.0,92,0.00,,,0.00,WUHU216DAVISVP2,2013-09-24 08:38:00,
2013-09-24 04:39:00,46.7,44.5,29.26,ESE,116,6.0,6.0,92,0.00,,,0.00,WUHU216DAVISVP2,2013-09-24 08:39:00,
2013-09-24 04:41:00,46.6,44.4,29.26,ESE,108,0.0,6.0,92,0.00,,,0.00,WUHU216DAVISVP2,2013-09-24 08:41:00,
2013-09-24 04:43:00,46.6,44.4,29.26,ESE,108,3.0,6.0,92,0.00,,,0.00,WUHU216DAVISVP2,2013-09-24 08:43:00,
2013-09-24 04:44:00,46.6,44.4,29.26,East,98,1.0,6.0,92,0.00,,,0.00,WUHU216DAVISVP2,2013-09-24 08:44:00,
2013-09-24 04:45:00,46.6,44.4,29.26,ESE,114,0.0,6.0,92,0.00,,,0.00,WUHU216DAVISVP2,2013-09-24 08:45:00,
2013-09-24 04:47:00,46.5,44.3,29.26,ESE,117,4.0,6.0,92,0.00,,,0.00,WUHU216DAVISVP2,2013-09-24 08:47:00,
2013-09-24 04:48:00,46.5,44.3,29.26,ESE,117,0.0,6.0,92,0.00,,,0.00,WUHU216DAVISVP2,2013-09-24 08:48:00,
2013-09-24 04:49:00,46.5,44.3,29.26,ESE,103,5.0,6.0,92,0.00,,,0.00,WUHU216DAVISVP2,2013-09-24 08:49:00,
2013-09-24 04:50:00,46.5,44.3,29.26,ESE,116,1.0,6.0,92,0.00,,,0.00,WUHU216DAVISVP2,2013-09-24 08:50:00,
2013-09-24 04:52:00,46.4,44.2,29.26,ESE,112,0.0,6.0,92,0.00,,,0.00,WUHU216DAVISVP2,2013-09-24 08:52:00,
2013-09-24 04:53:00,46.4,44.2,29.26,ESE,109,5.0,6.0,92,0.00,,,0.00,WUHU216DAVISVP2,2013-09-24 08:53:00,
2013-09-24 04:54:00,46.4,44.2,29.26,ESE,109,6.0,7.0,92,0.00,,,0.00,WUHU216DAVISVP2,2013-09-24 08:54:00,
2013-09-24 04:55:00,46.4,44.2,29.26,ESE,112,2.0,7.0,92,0.00,,,0.00,WUHU216DAVISVP2,2013-09-24 08:55:00,
2013-09-24 04:57:00,46.4,44.2,29.26,ESE,112,0.0,7.0,92,0.00,,,0.00,WUHU216DAVISVP2,2013-09-24 08:57:00,
2013-09-24 04:58:00,46.4,44.2,29.26,ESE,111,3.0,7.0,92,0.00,,,0.00,WUHU216DAVISVP2,2013-09-24 08:58:00,
2013-09-24 04:59:00,46.4,44.2,29.26,ESE,105,4.0,7.0,92,0.00,,,0.00,WUHU216DAVISVP2,2013-09-24 08:59:00,
2013-09-24 05:01:00,46.4,44.2,29.26,ESE,110,4.0,7.0,92,0.00,,,0.00,WUHU216DAVISVP2,2013-09-24 09:01:00,
2013-09-24 05:03:00,46.4,44.2,29.26,ESE,110,0.0,7.0,92,0.00,,,0.00,WUHU216DAVISVP2,2013-09-24 09:03:00,
2013-09-24 05:04:00,46.3,44.1,29.26,ESE,108,5.0,7.0,92,0.00,,,0.00,WUHU216DAVISVP2,2013-09-24 09:04:00,
2013-09-24 05:06:00,46.3,44.1,29.26,SE,129,4.0,7.0,92,0.00,,,0.00,WUHU216DAVISVP2,2013-09-24 09:06:00,
2013-09-24 05:08:00,46.3,44.1,29.26,ESE,110,5.0,7.0,92,0.00,,,0.00,WUHU216DAVISVP2,2013-09-24 09:08:00,
2013-09-24 05:09:00,46.3,44.1,29.26,ESE,122,5.0,7.0,92,0.00,,,0.00,WUHU216DAVISVP2,2013-09-24 09:09:00,
2013-09-24 05:11:00,46.3,44.1,29.26,ESE,118,3.0,7.0,92,0.00,,,0.00,WUHU216DAVISVP2,2013-09-24 09:11:00,
2013-09-24 05:13:00,46.3,44.1,29.26,ESE,110,0.0,7.0,92,0.00,,,0.00,WUHU216DAVISVP2,2013-09-24 09:13:00,
2013-09-24 05:14:00,46.2,44.0,29.26,ESE,106,4.0,7.0,92,0.00,,,0.00,WUHU216DAVISVP2,2013-09-24 09:14:00,
2013-09-24 05:15:00,46.2,44.2,29.26,SE,132,4.0,7.0,93,0.00,,,0.00,WUHU216DAVISVP2,2013-09-24 09:15:00,
2013-09-24 05:17:00,46.2,44.2,29.26,SE,124,1.0,7.0,93,0.00,,,0.00,WUHU216DAVISVP2,2013-09-24 09:17:00,
2013-09-24 05:18:00,46.2,44.3,29.26,ESE,122,0.0,7.0,93,0.00,,,0.00,WUHU216DAVISVP2,2013-09-24 09:18:00,
2013-09-24 05:19:00,46.2,44.3,29.26,ESE,122,0.0,7.0,93,0.00,,,0.00,WUHU216DAVISVP2,2013-09-24 09:19:00,
2013-09-24 05:20:00,46.1,44.2,29.26,ESE,115,4.0,7.0,93,0.00,,,0.00,WUHU216DAVISVP2,2013-09-24 09:20:00,
2013-09-24 05:22:00,46.1,44.2,29.26,ESE,106,4.0,7.0,93,0.00,,,0.00,WUHU216DAVISVP2,2013-09-24 09:22:00,
2013-09-24 05:24:00,46.1,44.2,29.26,ESE,116,5.0,7.0,93,0.00,,,0.00,WUHU216DAVISVP2,2013-09-24 09:24:00,
2013-09-24 05:25:00,46.0,44.1,29.26,ESE,106,7.0,7.0,93,0.00,,,0.00,WUHU216DAVISVP2,2013-09-24 09:25:00,
2013-09-24 05:26:00,46.1,44.2,29.26,ESE,117,2.0,7.0,93,0.00,,,0.00,WUHU216DAVISVP2,2013-09-24 09:26:00,
2013-09-24 05:27:00,46.0,44.1,29.26,SE,138,2.0,7.0,93,0.00,,,0.00,WUHU216DAVISVP2,2013-09-24 09:27:00,
2013-09-24 05:29:00,46.0,43.8,29.26,East,95,7.0,7.0,92,0.00,,,0.00,WUHU216DAVISVP2,2013-09-24 09:29:00,
2013-09-24 05:30:00,46.0,44.1,29.26,ESE,114,2.0,7.0,93,0.00,,,0.00,WUHU216DAVISVP2,2013-09-24 09:30:00,
2013-09-24 05:31:00,46.0,44.1,29.26,ESE,112,5.0,7.0,93,0.00,,,0.00,WUHU216DAVISVP2,2013-09-24 09:31:00,
2013-09-24 05:32:00,46.0,44.0,29.26,ESE,122,2.0,7.0,93,0.00,,,0.00,WUHU216DAVISVP2,2013-09-24 09:32:00,
2013-09-24 05:34:00,46.0,44.0,29.26,ESE,109,1.0,7.0,93,0.00,,,0.00,WUHU216DAVISVP2,2013-09-24 09:34:00,
2013-09-24 05:35:00,46.0,44.0,29.26,East,86,3.0,7.0,93,0.00,,,0.00,WUHU216DAVISVP2,2013-09-24 09:35:00,
2013-09-24 05:36:00,46.0,44.0,29.26,ESE,104,1.0,7.0,93,0.00,,,0.00,WUHU216DAVISVP2,2013-09-24 09:36:00,
2013-09-24 05:37:00,46.0,44.0,29.26,ESE,106,5.0,7.0,93,0.00,,,0.00,WUHU216DAVISVP2,2013-09-24 09:37:00,
2013-09-24 05:39:00,46.0,44.0,29.26,ESE,105,2.0,7.0,93,0.00,,,0.00,WUHU216DAVISVP2,2013-09-24 09:39:00,
2013-09-24 05:40:00,46.0,44.0,29.26,ESE,102,2.0,7.0,93,0.00,,,0.00,WUHU216DAVISVP2,2013-09-24 09:40:00,
2013-09-24 05:41:00,46.0,44.0,29.26,ESE,119,4.0,7.0,93,0.00,,,0.00,WUHU216DAVISVP2,2013-09-24 09:41:00,
2013-09-24 05:42:00,46.0,44.0,29.26,SE,134,1.0,7.0,93,0.00,,,0.00,WUHU216DAVISVP2,2013-09-24 09:42:00,
2013-09-24 05:44:00,46.0,44.0,29.26,ESE,104,5.0,7.0,93,0.00,,,0.00,WUHU216DAVISVP2,2013-09-24 09:44:00,
2013-09-24 05:45:00,46.0,44.0,29.26,ESE,113,2.0,7.0,93,0.00,,,0.00,WUHU216DAVISVP2,2013-09-24 09:45:00,
2013-09-24 05:47:00,46.0,44.0,29.26,SE,136,4.0,7.0,93,0.00,,,0.00,WUHU216DAVISVP2,2013-09-24 09:47:00,
2013-09-24 05:49:00,45.9,44.0,29.26,ESE,116,4.0,7.0,93,0.00,,,0.00,WUHU216DAVISVP2,2013-09-24 09:49:00,
2013-09-24 05:50:00,45.9,44.0,29.26,SSE,149,5.0,7.0,93,0.00,,,0.00,WUHU216DAVISVP2,2013-09-24 09:50:00,
2013-09-24 05:52:00,45.9,44.0,29.26,ESE,107,5.0,7.0,93,0.00,,,0.00,WUHU216DAVISVP2,2013-09-24 09:52:00,
2013-09-24 05:54:00,45.9,44.0,29.26,ESE,114,6.0,7.0,93,0.00,,,0.00,WUHU216DAVISVP2,2013-09-24 09:54:00,
2013-09-24 05:55:00,45.9,44.0,29.26,ESE,114,2.0,7.0,93,0.00,,,0.00,WUHU216DAVISVP2,2013-09-24 09:55:00,
2013-09-24 05:57:00,45.8,43.9,29.26,ESE,114,2.0,7.0,93,0.00,,,0.00,WUHU216DAVISVP2,2013-09-24 09:57:00,
2013-09-24 05:58:00,45.8,43.9,29.26,East,100,5.0,7.0,93,0.00,,,0.00,WUHU216DAVISVP2,2013-09-24 09:58:00,
2013-09-24 05:59:00,45.8,43.9,29.26,ESE,112,1.0,7.0,93,0.00,,,0.00,WUHU216DAVISVP2,2013-09-24 09:59:00,
2013-09-24 06:00:00,45.8,43.9,29.26,ESE,114,5.0,7.0,93,0.00,,,0.00,WUHU216DAVISVP2,2013-09-24 10:00:00,
2013-09-24 06:02:00,45.8,43.8,29.26,ESE,107,4.0,7.0,93,0.00,,,0.00,WUHU216DAVISVP2,2013-09-24 10:02:00,
2013-09-24 06:03:00,45.8,43.8,29.26,ESE,121,5.0,7.0,93,0.00,,,0.00,WUHU216DAVISVP2,2013-09-24 10:03:00,
2013-09-24 06:04:00,45.7,43.7,29.26,ESE,122,1.0,7.0,93,0.00,,,0.00,WUHU216DAVISVP2,2013-09-24 10:04:00,
2013-09-24 06:06:00,45.7,43.7,29.26,ESE,118,2.0,7.0,93,0.00,,,0.00,WUHU216DAVISVP2,2013-09-24 10:06:00,
2013-09-24 06:08:00,45.7,43.7,29.26,SE,125,6.0,7.0,93,0.00,,,0.00,WUHU216DAVISVP2,2013-09-24 10:08:00,
2013-09-24 06:09:00,45.7,43.7,29.27,ESE,117,2.0,7.0,93,0.00,,,0.00,WUHU216DAVISVP2,2013-09-24 10:09:00,
2013-09-24 06:10:00,45.7,43.7,29.27,ESE,106,4.0,7.0,93,0.00,,,0.00,WUHU216DAVISVP2,2013-09-24 10:10:00,
2013-09-24 06:11:00,45.7,43.7,29.27,ESE,108,3.0,7.0,93,0.00,,,0.00,WUHU216DAVISVP2,2013-09-24 10:11:00,
2013-09-24 06:13:00,45.6,43.6,29.27,SE,128,2.0,7.0,93,0.00,,,0.00,WUHU216DAVISVP2,2013-09-24 10:13:00,
2013-09-24 06:14:00,45.6,43.6,29.27,ESE,116,4.0,7.0,93,0.00,,,0.00,WUHU216DAVISVP2,2013-09-24 10:14:00,
2013-09-24 06:15:00,45.6,43.6,29.26,SE,135,2.0,7.0,93,0.00,,,0.00,WUHU216DAVISVP2,2013-09-24 10:15:00,
2013-09-24 06:16:00,45.6,43.6,29.26,East,97,4.0,7.0,93,0.00,,,0.00,WUHU216DAVISVP2,2013-09-24 10:16:00,
2013-09-24 06:18:00,45.6,43.6,29.26,ESE,108,0.0,6.0,93,0.00,,,0.00,WUHU216DAVISVP2,2013-09-24 10:18:00,
2013-09-24 06:19:00,45.6,43.6,29.26,SE,134,2.0,6.0,93,0.00,,,0.00,WUHU216DAVISVP2,2013-09-24 10:19:00,
2013-09-24 06:20:00,45.6,43.7,29.27,ESE,108,0.0,6.0,93,0.00,,,0.00,WUHU216DAVISVP2,2013-09-24 10:20:00,
2013-09-24 06:21:00,45.6,43.7,29.26,ESE,113,0.0,6.0,93,0.00,,,0.00,WUHU216DAVISVP2,2013-09-24 10:21:00,
2013-09-24 06:23:00,45.6,43.7,29.26,ESE,112,1.0,6.0,93,0.00,,,0.00,WUHU216DAVISVP2,2013-09-24 10:23:00,
2013-09-24 06:24:00,45.6,43.7,29.27,SE,131,1.0,6.0,93,0.00,,,0.00,WUHU216DAVISVP2,2013-09-24 10:24:00,
2013-09-24 06:25:00,45.6,43.7,29.27,SE,131,2.0,6.0,93,0.00,,,0.00,WUHU216DAVISVP2,2013-09-24 10:25:00,
2013-09-24 06:27:00,45.5,43.6,29.27,ESE,116,1.0,6.0,93,0.00,,,0.00,WUHU216DAVISVP2,2013-09-24 10:27:00,
2013-09-24 06:28:00,45.5,43.6,29.27,SE,129,3.0,6.0,93,0.00,,,0.00,WUHU216DAVISVP2,2013-09-24 10:28:00,
2013-09-24 06:29:00,45.5,43.6,29.27,ESE,107,4.0,6.0,93,0.00,,,0.00,WUHU216DAVISVP2,2013-09-24 10:29:00,
2013-09-24 06:30:00,45.5,43.6,29.26,SSE,147,0.0,6.0,93,0.00,,,0.00,WUHU216DAVISVP2,2013-09-24 10:30:00,
2013-09-24 06:31:00,45.5,43.5,29.26,SE,130,0.0,6.0,93,0.00,,,0.00,WUHU216DAVISVP2,2013-09-24 10:31:00,
2013-09-24 06:32:00,45.5,43.5,29.26,SE,131,2.0,6.0,93,0.00,,,0.00,WUHU216DAVISVP2,2013-09-24 10:32:00,
2013-09-24 06:33:00,45.5,43.5,29.26,ESE,114,4.0,6.0,93,0.00,,,0.00,WUHU216DAVISVP2,2013-09-24 10:33:00,
2013-09-24 06:34:00,45.5,43.5,29.26,ESE,106,5.0,5.0,93,0.00,,,0.00,WUHU216DAVISVP2,2013-09-24 10:34:00,
2013-09-24 06:35:00,45.5,43.5,29.26,ESE,108,1.0,5.0,93,0.00,,,0.00,WUHU216DAVISVP2,2013-09-24 10:35:00,
2013-09-24 06:36:00,45.5,43.5,29.26,ESE,108,3.0,5.0,93,0.00,,,0.00,WUHU216DAVISVP2,2013-09-24 10:36:00,
2013-09-24 06:37:00,45.5,43.5,29.26,ESE,108,5.0,5.0,93,0.00,,,0.00,WUHU216DAVISVP2,2013-09-24 10:37:00,
2013-09-24 06:38:00,45.4,43.4,29.27,ESE,108,4.0,5.0,93,0.00,,,0.00,WUHU216DAVISVP2,2013-09-24 10:38:00,
2013-09-24 06:39:00,45.4,43.5,29.27,SE,131,5.0,5.0,93,0.00,,,0.00,WUHU216DAVISVP2,2013-09-24 10:39:00,
2013-09-24 06:40:00,45.4,43.5,29.27,ESE,115,0.0,5.0,93,0.00,,,0.00,WUHU216DAVISVP2,2013-09-24 10:40:00,
2013-09-24 06:41:00,45.4,43.5,29.27,ESE,107,1.0,5.0,93,0.00,,,0.00,WUHU216DAVISVP2,2013-09-24 10:41:00,
2013-09-24 06:42:00,45.4,43.5,29.27,ESE,107,0.0,5.0,93,0.00,,,0.00,WUHU216DAVISVP2,2013-09-24 10:42:00,
2013-09-24 06:43:00,45.4,43.5,29.27,ESE,115,2.0,5.0,93,0.00,,,0.00,WUHU216DAVISVP2,2013-09-24 10:43:00,
2013-09-24 06:44:00,45.4,43.5,29.27,ESE,115,0.0,5.0,93,0.00,,,0.00,WUHU216DAVISVP2,2013-09-24 10:44:00,
2013-09-24 06:45:00,45.4,43.5,29.27,ESE,114,5.0,5.0,93,0.00,,,0.00,WUHU216DAVISVP2,2013-09-24 10:45:00,
2013-09-24 06:47:00,45.4,43.5,29.27,ESE,108,4.0,6.0,93,0.00,,,0.00,WUHU216DAVISVP2,2013-09-24 10:47:00,
2013-09-24 06:49:00,45.4,43.5,29.27,ESE,118,1.0,6.0,93,0.00,,,0.00,WUHU216DAVISVP2,2013-09-24 10:49:00,
2013-09-24 06:50:00,45.3,43.4,29.27,SE,125,1.0,6.0,93,0.00,,,0.00,WUHU216DAVISVP2,2013-09-24 10:50:00,
2013-09-24 06:52:00,45.3,43.4,29.27,ESE,117,2.0,6.0,93,0.00,,,0.00,WUHU216DAVISVP2,2013-09-24 10:52:00,
2013-09-24 06:54:00,45.3,43.6,29.27,ESE,120,3.0,6.0,94,0.00,,,0.00,WUHU216DAVISVP2,2013-09-24 10:54:00,
2013-09-24 06:55:00,45.3,43.6,29.27,ESE,120,0.0,6.0,94,0.00,,,0.00,WUHU216DAVISVP2,2013-09-24 10:55:00,
2013-09-24 06:56:00,45.2,43.5,29.27,ESE,120,0.0,6.0,94,0.00,,,0.00,WUHU216DAVISVP2,2013-09-24 10:56:00,
2013-09-24 06:57:00,45.3,43.6,29.27,ESE,122,3.0,6.0,94,0.00,,,0.00,WUHU216DAVISVP2,2013-09-24 10:57:00,
2013-09-24 06:58:00,45.2,43.5,29.27,ESE,122,0.0,6.0,94,0.00,,,0.00,WUHU216DAVISVP2,2013-09-24 10:58:00,
2013-09-24 06:59:00,45.2,43.5,29.27,ESE,122,0.0,6.0,94,0.00,,,0.00,WUHU216DAVISVP2,2013-09-24 10:59:00,
2013-09-24 07:00:00,45.2,43.5,29.27,ESE,113,1.0,6.0,94,0.00,,,0.00,WUHU216DAVISVP2,2013-09-24 11:00:00,
2013-09-24 07:01:00,45.2,43.5,29.27,ESE,113,1.0,6.0,94,0.00,,,0.00,WUHU216DAVISVP2,2013-09-24 11:01:00,
2013-09-24 07:03:00,45.2,43.5,29.28,ESE,113,1.0,6.0,94,0.00,,,0.00,WUHU216DAVISVP2,2013-09-24 11:03:00,
2013-09-24 07:04:00,45.2,43.5,29.28,ESE,113,4.0,6.0,94,0.00,,,0.00,WUHU216DAVISVP2,2013-09-24 11:04:00,
2013-09-24 07:06:00,45.2,43.5,29.28,SE,126,1.0,6.0,94,0.00,,,0.00,WUHU216DAVISVP2,2013-09-24 11:06:00,
2013-09-24 07:08:00,45.1,43.2,29.27,ESE,114,4.0,6.0,93,0.00,,,0.00,WUHU216DAVISVP2,2013-09-24 11:08:00,
2013-09-24 07:09:00,45.1,43.4,29.27,ESE,117,0.0,6.0,94,0.00,,,0.00,WUHU216DAVISVP2,2013-09-24 11:09:00,
2013-09-24 07:11:00,45.1,43.5,29.27,ESE,112,0.0,6.0,94,0.00,,,0.00,WUHU216DAVISVP2,2013-09-24 11:11:00,
2013-09-24 07:13:00,45.1,43.5,29.27,ESE,112,0.0,6.0,94,0.00,,,0.00,WUHU216DAVISVP2,2013-09-24 11:13:00,
2013-09-24 07:14:00,45.1,43.5,29.27,ESE,112,0.0,6.0,94,0.00,,,0.00,WUHU216DAVISVP2,2013-09-24 11:14:00,
2013-09-24 07:16:00,45.1,43.4,29.27,ESE,112,0.0,6.0,94,0.00,,,0.00,WUHU216DAVISVP2,2013-09-24 11:16:00,
2013-09-24 07:17:00,45.1,43.4,29.27,ESE,112,0.0,6.0,94,0.00,,,0.00,WUHU216DAVISVP2,2013-09-24 11:17:00,
2013-09-24 07:18:00,45.1,43.4,29.27,ESE,112,0.0,6.0,94,0.00,,,0.00,WUHU216DAVISVP2,2013-09-24 11:18:00,
2013-09-24 07:19:00,45.1,43.4,29.27,SE,141,0.0,5.0,94,0.00,,,0.00,WUHU216DAVISVP2,2013-09-24 11:19:00,
2013-09-24 07:21:00,45.1,43.4,29.27,ESE,116,4.0,5.0,94,0.00,,,0.00,WUHU216DAVISVP2,2013-09-24 11:21:00,
2013-09-24 07:22:00,45.1,43.4,29.27,ESE,108,0.0,5.0,94,0.00,,,0.00,WUHU216DAVISVP2,2013-09-24 11:22:00,
2013-09-24 07:23:00,45.1,43.4,29.27,ESE,108,0.0,5.0,94,0.00,,,0.00,WUHU216DAVISVP2,2013-09-24 11:23:00,
2013-09-24 07:24:00,45.1,43.4,29.27,ESE,108,0.0,5.0,94,0.00,,,0.00,WUHU216DAVISVP2,2013-09-24 11:24:00,
2013-09-24 07:26:00,45.1,43.4,29.27,ESE,112,1.0,5.0,94,0.00,,,0.00,WUHU216DAVISVP2,2013-09-24 11:26:00,
2013-09-24 07:27:00,45.1,43.4,29.27,ESE,116,4.0,5.0,94,0.00,,,0.00,WUHU216DAVISVP2,2013-09-24 11:27:00,
2013-09-24 07:28:00,45.1,43.4,29.27,ESE,110,2.0,5.0,94,0.00,,,0.00,WUHU216DAVISVP2,2013-09-24 11:28:00,
2013-09-24 07:29:00,45.1,43.4,29.27,ESE,110,2.0,5.0,94,0.00,,,0.00,WUHU216DAVISVP2,2013-09-24 11:29:00,
2013-09-24 07:31:00,45.1,43.4,29.27,ESE,110,1.0,5.0,94,0.00,,,0.00,WUHU216DAVISVP2,2013-09-24 11:31:00,
2013-09-24 07:32:00,45.1,43.4,29.27,ESE,110,1.0,5.0,94,0.00,,,0.00,WUHU216DAVISVP2,2013-09-24 11:32:00,
2013-09-24 07:33:00,45.1,43.4,29.27,ESE,110,0.0,5.0,94,0.00,,,0.00,WUHU216DAVISVP2,2013-09-24 11:33:00,
2013-09-24 07:34:00,45.1,43.4,29.27,ESE,110,0.0,5.0,94,0.00,,,0.00,WUHU216DAVISVP2,2013-09-24 11:34:00,
2013-09-24 07:36:00,45.0,43.3,29.27,ESE,110,0.0,5.0,94,0.00,,,0.00,WUHU216DAVISVP2,2013-09-24 11:36:00,
2013-09-24 07:38:00,45.0,43.3,29.27,ESE,110,2.0,5.0,94,0.00,,,0.00,WUHU216DAVISVP2,2013-09-24 11:38:00,
2013-09-24 07:39:00,45.0,43.3,29.27,ESE,110,1.0,5.0,94,0.00,,,0.00,WUHU216DAVISVP2,2013-09-24 11:39:00,
2013-09-24 07:41:00,45.0,43.3,29.27,ESE,112,0.0,5.0,94,0.00,,,0.00,WUHU216DAVISVP2,2013-09-24 11:41:00,
2013-09-24 07:43:00,44.9,43.2,29.28,ESE,112,4.0,5.0,94,0.00,,,0.00,WUHU216DAVISVP2,2013-09-24 11:43:00,
2013-09-24 07:44:00,44.9,43.2,29.28,SE,125,2.0,5.0,94,0.00,,,0.00,WUHU216DAVISVP2,2013-09-24 11:44:00,
2013-09-24 07:45:00,44.9,43.2,29.28,SE,129,0.0,5.0,94,0.00,,,0.00,WUHU216DAVISVP2,2013-09-24 11:45:00,
2013-09-24 07:47:00,44.9,43.2,29.27,SE,131,0.0,5.0,94,0.00,,,0.00,WUHU216DAVISVP2,2013-09-24 11:47:00,
2013-09-24 07:49:00,45.0,43.3,29.27,ESE,123,0.0,5.0,94,0.00,,,0.00,WUHU216DAVISVP2,2013-09-24 11:49:00,
2013-09-24 07:50:00,44.9,43.2,29.27,ESE,118,4.0,5.0,94,0.00,,,0.00,WUHU216DAVISVP2,2013-09-24 11:50:00,
2013-09-24 07:52:00,45.0,43.4,29.27,ESE,107,2.0,5.0,94,0.00,,,0.00,WUHU216DAVISVP2,2013-09-24 11:52:00,
2013-09-24 07:54:00,45.0,43.4,29.27,ESE,107,0.0,5.0,94,0.00,,,0.00,WUHU216DAVISVP2,2013-09-24 11:54:00,
2013-09-24 07:55:00,45.0,43.4,29.27,ESE,107,0.0,5.0,94,0.00,,,0.00,WUHU216DAVISVP2,2013-09-24 11:55:00,
2013-09-24 07:56:00,45.1,43.5,29.28,ESE,107,0.0,5.0,94,0.00,,,0.00,WUHU216DAVISVP2,2013-09-24 11:56:00,
2013-09-24 07:57:00,45.1,43.5,29.28,ESE,107,0.0,5.0,94,0.00,,,0.00,WUHU216DAVISVP2,2013-09-24 11:57:00,
2013-09-24 07:59:00,45.1,43.5,29.27,ESE,112,1.0,5.0,94,0.00,,,0.00,WUHU216DAVISVP2,2013-09-24 11:59:00,
2013-09-24 08:00:00,45.1,43.5,29.27,ESE,122,3.0,5.0,94,0.00,,,0.00,WUHU216DAVISVP2,2013-09-24 12:00:00,
2013-09-24 08:02:00,45.2,43.6,29.27,ESE,112,3.0,5.0,94,0.00,,,0.00,WUHU216DAVISVP2,2013-09-24 12:02:00,
2013-09-24 08:05:00,45.2,43.6,29.27,ESE,108,1.0,5.0,94,0.00,,,0.00,WUHU216DAVISVP2,2013-09-24 12:05:00,
2013-09-24 08:07:00,45.2,43.6,29.27,ESE,108,2.0,5.0,94,0.00,,,0.00,WUHU216DAVISVP2,2013-09-24 12:07:00,
2013-09-24 08:10:00,45.4,43.8,29.27,SE,130,4.0,5.0,94,0.00,,,0.00,WUHU216DAVISVP2,2013-09-24 12:10:00,
2013-09-24 08:11:00,45.4,43.8,29.27,SE,128,2.0,5.0,94,0.00,,,0.00,WUHU216DAVISVP2,2013-09-24 12:11:00,
2013-09-24 08:12:00,45.4,43.8,29.27,ESE,112,1.0,5.0,94,0.00,,,0.00,WUHU216DAVISVP2,2013-09-24 12:12:00,
2013-09-24 08:15:00,45.6,44.0,29.27,ESE,117,0.0,5.0,94,0.00,,,0.00,WUHU216DAVISVP2,2013-09-24 12:15:00,
2013-09-24 08:16:00,45.6,44.0,29.27,ESE,117,0.0,5.0,94,0.00,,,0.00,WUHU216DAVISVP2,2013-09-24 12:16:00,
2013-09-24 08:17:00,45.7,44.1,29.27,ESE,117,0.0,5.0,94,0.00,,,0.00,WUHU216DAVISVP2,2013-09-24 12:17:00,
2013-09-24 08:18:00,45.7,44.1,29.27,ESE,117,1.0,5.0,94,0.00,,,0.00,WUHU216DAVISVP2,2013-09-24 12:18:00,
2013-09-24 08:21:00,45.9,44.2,29.27,SSE,152,0.0,5.0,94,0.00,,,0.00,WUHU216DAVISVP2,2013-09-24 12:21:00,
2013-09-24 08:22:00,46.0,44.3,29.27,SSE,152,0.0,5.0,94,0.00,,,0.00,WUHU216DAVISVP2,2013-09-24 12:22:00,
2013-09-24 08:23:00,46.1,44.4,29.27,East,97,2.0,4.0,94,0.00,,,0.00,WUHU216DAVISVP2,2013-09-24 12:23:00,
2013-09-24 08:26:00,46.4,45.0,29.27,ESE,104,0.0,4.0,95,0.00,,,0.00,WUHU216DAVISVP2,2013-09-24 12:26:00,
2013-09-24 08:27:00,46.4,45.0,29.27,East,97,0.0,4.0,95,0.00,,,0.00,WUHU216DAVISVP2,2013-09-24 12:27:00,
2013-09-24 08:28:00,46.5,44.8,29.28,East,97,0.0,4.0,94,0.00,,,0.00,WUHU216DAVISVP2,2013-09-24 12:28:00,
2013-09-24 08:31:00,46.8,45.4,29.27,ESE,112,0.0,4.0,95,0.00,,,0.00,WUHU216DAVISVP2,2013-09-24 12:31:00,
2013-09-24 08:32:00,46.9,45.5,29.27,ESE,112,0.0,2.0,95,0.00,,,0.00,WUHU216DAVISVP2,2013-09-24 12:32:00,
2013-09-24 08:33:00,47.0,45.6,29.27,ESE,112,0.0,2.0,95,0.00,,,0.00,WUHU216DAVISVP2,2013-09-24 12:33:00,
2013-09-24 08:36:00,47.3,45.7,29.27,ESE,112,0.0,2.0,94,0.00,,,0.00,WUHU216DAVISVP2,2013-09-24 12:36:00,
2013-09-24 08:37:00,47.3,45.7,29.27,ESE,112,0.0,2.0,94,0.00,,,0.00,WUHU216DAVISVP2,2013-09-24 12:37:00,
2013-09-24 08:38:00,47.4,45.8,29.27,ESE,112,0.0,2.0,94,0.00,,,0.00,WUHU216DAVISVP2,2013-09-24 12:38:00,
2013-09-24 08:41:00,47.7,46.0,29.27,ESE,112,1.0,2.0,94,0.00,,,0.00,WUHU216DAVISVP2,2013-09-24 12:41:00,
2013-09-24 08:42:00,47.8,46.1,29.27,ESE,117,1.0,2.0,94,0.00,,,0.00,WUHU216DAVISVP2,2013-09-24 12:42:00,
2013-09-24 08:43:00,47.9,46.2,29.27,ESE,117,0.0,2.0,94,0.00,,,0.00,WUHU216DAVISVP2,2013-09-24 12:43:00,
2013-09-24 08:47:00,48.3,46.6,29.27,ESE,116,0.0,2.0,94,0.00,,,0.00,WUHU216DAVISVP2,2013-09-24 12:47:00,
2013-09-24 08:48:00,48.3,46.6,29.27,ESE,109,2.0,2.0,94,0.00,,,0.00,WUHU216DAVISVP2,2013-09-24 12:48:00,
2013-09-24 08:49:00,48.5,46.5,29.27,ESE,118,2.0,4.0,93,0.00,,,0.00,WUHU216DAVISVP2,2013-09-24 12:49:00,
2013-09-24 08:52:00,48.6,46.4,29.27,ESE,116,2.0,5.0,92,0.00,,,0.00,WUHU216DAVISVP2,2013-09-24 12:52:00,
2013-09-24 08:53:00,48.6,46.4,29.27,East,91,2.0,5.0,92,0.00,,,0.00,WUHU216DAVISVP2,2013-09-24 12:53:00,
2013-09-24 08:55:00,48.7,46.5,29.27,ESE,106,4.0,5.0,92,0.00,,,0.00,WUHU216DAVISVP2,2013-09-24 12:55:00,
2013-09-24 08:57:00,48.8,46.5,29.27,ESE,122,4.0,6.0,92,0.00,,,0.00,WUHU216DAVISVP2,2013-09-24 12:57:00,
2013-09-24 08:58:00,48.8,46.5,29.27,SE,131,4.0,6.0,92,0.00,,,0.00,WUHU216DAVISVP2,2013-09-24 12:58:00,
2013-09-24 09:00:00,48.9,46.6,29.27,ESE,110,4.0,6.0,92,0.00,,,0.00,WUHU216DAVISVP2,2013-09-24 13:00:00,
2013-09-24 09:03:00,49.1,46.6,29.27,SE,133,0.0,6.0,91,0.00,,,0.00,WUHU216DAVISVP2,2013-09-24 13:03:00,
2013-09-24 09:04:00,49.1,46.6,29.27,SE,133,1.0,6.0,91,0.00,,,0.00,WUHU216DAVISVP2,2013-09-24 13:04:00,
2013-09-24 09:06:00,49.3,46.8,29.27,SE,139,0.0,6.0,91,0.00,,,0.00,WUHU216DAVISVP2,2013-09-24 13:06:00,
2013-09-24 09:08:00,49.5,47.0,29.27,East,98,1.0,6.0,91,0.00,,,0.00,WUHU216DAVISVP2,2013-09-24 13:08:00,
2013-09-24 09:09:00,49.6,47.1,29.27,East,98,2.0,6.0,91,0.00,,,0.00,WUHU216DAVISVP2,2013-09-24 13:09:00,
2013-09-24 09:12:00,49.8,47.3,29.27,ESE,103,2.0,6.0,91,0.00,,,0.00,WUHU216DAVISVP2,2013-09-24 13:12:00,
2013-09-24 09:13:00,50.0,47.5,29.27,ESE,103,0.0,6.0,91,0.00,,,0.00,WUHU216DAVISVP2,2013-09-24 13:13:00,
2013-09-24 09:14:00,50.0,47.2,29.27,ESE,120,2.0,6.0,90,0.00,,,0.00,WUHU216DAVISVP2,2013-09-24 13:14:00,
2013-09-24 09:17:00,50.4,47.6,29.27,ESE,122,0.0,6.0,90,0.00,,,0.00,WUHU216DAVISVP2,2013-09-24 13:17:00,
2013-09-24 09:19:00,50.5,47.7,29.27,ESE,112,2.0,6.0,90,0.00,,,0.00,WUHU216DAVISVP2,2013-09-24 13:19:00,
2013-09-24 09:22:00,50.8,47.7,29.27,East,98,4.0,6.0,89,0.00,,,0.00,WUHU216DAVISVP2,2013-09-24 13:22:00,
2013-09-24 09:24:00,51.0,47.9,29.27,ESE,106,4.0,6.0,89,0.00,,,0.00,WUHU216DAVISVP2,2013-09-24 13:24:00,
2013-09-24 09:27:00,51.2,47.8,29.27,SE,140,3.0,8.0,88,0.00,,,0.00,WUHU216DAVISVP2,2013-09-24 13:27:00,
2013-09-24 09:29:00,51.3,47.9,29.26,ESE,115,0.0,8.0,88,0.00,,,0.00,WUHU216DAVISVP2,2013-09-24 13:29:00,
2013-09-24 09:32:00,51.7,48.3,29.26,ESE,104,0.0,8.0,88,0.00,,,0.00,WUHU216DAVISVP2,2013-09-24 13:32:00,
2013-09-24 09:34:00,51.8,48.4,29.26,ESE,104,4.0,8.0,88,0.00,,,0.00,WUHU216DAVISVP2,2013-09-24 13:34:00,
2013-09-24 09:35:00,51.9,48.5,29.26,East,95,4.0,8.0,88,0.00,,,0.00,WUHU216DAVISVP2,2013-09-24 13:35:00,
2013-09-24 09:38:00,52.2,48.4,29.26,ESE,114,2.0,8.0,87,0.00,,,0.00,WUHU216DAVISVP2,2013-09-24 13:38:00,
2013-09-24 09:39:00,52.2,48.4,29.26,SE,129,2.0,8.0,87,0.00,,,0.00,WUHU216DAVISVP2,2013-09-24 13:39:00,
2013-09-24 09:41:00,52.3,48.2,29.26,East,93,0.0,8.0,86,0.00,,,0.00,WUHU216DAVISVP2,2013-09-24 13:41:00,
2013-09-24 09:43:00,52.6,48.8,29.26,East,94,0.0,8.0,87,0.00,,,0.00,WUHU216DAVISVP2,2013-09-24 13:43:00,
2013-09-24 09:44:00,52.7,48.9,29.26,East,100,1.0,8.0,87,0.00,,,0.00,WUHU216DAVISVP2,2013-09-24 13:44:00,
2013-09-24 09:45:00,52.8,49.0,29.26,East,100,2.0,7.0,87,0.00,,,0.00,WUHU216DAVISVP2,2013-09-24 13:45:00,
2013-09-24 09:46:00,52.9,48.8,29.26,ESE,123,4.0,7.0,86,0.00,,,0.00,WUHU216DAVISVP2,2013-09-24 13:46:00,
2013-09-24 09:48:00,53.1,49.0,29.26,ESE,112,0.0,7.0,86,0.00,,,0.00,WUHU216DAVISVP2,2013-09-24 13:48:00,
2013-09-24 09:49:00,53.2,49.1,29.26,ESE,112,1.0,7.0,86,0.00,,,0.00,WUHU216DAVISVP2,2013-09-24 13:49:00,
2013-09-24 09:50:00,53.2,49.1,29.26,ESE,112,1.0,7.0,86,0.00,,,0.00,WUHU216DAVISVP2,2013-09-24 13:50:00,
2013-09-24 09:51:00,53.4,49.3,29.26,ESE,112,1.0,7.0,86,0.00,,,0.00,WUHU216DAVISVP2,2013-09-24 13:51:00,
2013-09-24 09:53:00,53.7,49.3,29.26,East,91,2.0,7.0,85,0.00,,,0.00,WUHU216DAVISVP2,2013-09-24 13:53:00,
2013-09-24 09:54:00,53.8,49.4,29.26,ESE,110,4.0,7.0,85,0.00,,,0.00,WUHU216DAVISVP2,2013-09-24 13:54:00,
2013-09-24 09:55:00,53.9,49.2,29.26,ESE,113,3.0,7.0,84,0.00,,,0.00,WUHU216DAVISVP2,2013-09-24 13:55:00,
2013-09-24 09:56:00,53.9,49.2,29.26,ESE,120,5.0,10.0,84,0.00,,,0.00,WUHU216DAVISVP2,2013-09-24 13:56:00,
2013-09-24 09:58:00,54.0,49.3,29.26,South,175,0.0,10.0,84,0.00,,,0.00,WUHU216DAVISVP2,2013-09-24 13:58:00,
2013-09-24 09:59:00,54.1,49.4,29.26,South,175,0.0,10.0,84,0.00,,,0.00,WUHU216DAVISVP2,2013-09-24 13:59:00,
2013-09-24 10:00:00,54.2,49.5,29.26,South,175,0.0,10.0,84,0.00,,,0.00,WUHU216DAVISVP2,2013-09-24 14:00:00,
2013-09-24 10:01:00,54.2,49.5,29.26,NE,44,0.0,10.0,84,0.00,,,0.00,WUHU216DAVISVP2,2013-09-24 14:01:00,
2013-09-24 10:03:00,54.6,49.2,29.26,SSE,166,0.0,10.0,82,0.00,,,0.00,WUHU216DAVISVP2,2013-09-24 14:03:00,
2013-09-24 10:04:00,54.7,49.3,29.26,South,173,6.0,10.0,82,0.00,,,0.00,WUHU216DAVISVP2,2013-09-24 14:04:00,
2013-09-24 10:05:00,54.8,49.1,29.26,South,181,0.0,10.0,81,0.00,,,0.00,WUHU216DAVISVP2,2013-09-24 14:05:00,
2013-09-24 10:06:00,54.8,49.1,29.26,South,181,3.0,10.0,81,0.00,,,0.00,WUHU216DAVISVP2,2013-09-24 14:06:00,
2013-09-24 10:08:00,54.9,49.2,29.26,South,183,6.0,10.0,81,0.00,,,0.00,WUHU216DAVISVP2,2013-09-24 14:08:00,
2013-09-24 10:09:00,55.0,49.3,29.26,ESE,120,2.0,10.0,81,0.00,,,0.00,WUHU216DAVISVP2,2013-09-24 14:09:00,
2013-09-24 10:10:00,55.1,49.0,29.26,SE,125,4.0,10.0,80,0.00,,,0.00,WUHU216DAVISVP2,2013-09-24 14:10:00,
2013-09-24 10:11:00,55.2,49.1,29.26,ESE,118,3.0,10.0,80,0.00,,,0.00,WUHU216DAVISVP2,2013-09-24 14:11:00,
2013-09-24 10:13:00,55.3,48.9,29.25,SE,127,5.0,10.0,79,0.00,,,0.00,WUHU216DAVISVP2,2013-09-24 14:13:00,
2013-09-24 10:15:00,55.5,49.1,29.25,SE,137,1.0,8.0,79,0.00,,,0.00,WUHU216DAVISVP2,2013-09-24 14:15:00,
2013-09-24 10:16:00,55.6,49.2,29.25,ESE,119,4.0,8.0,79,0.00,,,0.00,WUHU216DAVISVP2,2013-09-24 14:16:00,
2013-09-24 10:17:00,55.7,49.3,29.25,ESE,112,2.0,8.0,79,0.00,,,0.00,WUHU216DAVISVP2,2013-09-24 14:17:00,
2013-09-24 10:18:00,55.8,49.4,29.25,SE,125,6.0,8.0,79,0.00,,,0.00,WUHU216DAVISVP2,2013-09-24 14:18:00,
2013-09-24 10:21:00,55.9,49.2,29.25,SW,225,2.0,8.0,78,0.00,,,0.00,WUHU216DAVISVP2,2013-09-24 14:21:00,
2013-09-24 10:22:00,56.0,49.3,29.26,South,180,0.0,8.0,78,0.00,,,0.00,WUHU216DAVISVP2,2013-09-24 14:22:00,
2013-09-24 10:24:00,56.3,49.5,29.25,WSW,256,3.0,8.0,78,0.00,,,0.00,WUHU216DAVISVP2,2013-09-24 14:24:00,
2013-09-24 10:26:00,56.4,49.3,29.26,South,183,5.0,8.0,77,0.00,,,0.00,WUHU216DAVISVP2,2013-09-24 14:26:00,
2013-09-24 10:27:00,56.4,49.3,29.25,South,190,2.0,8.0,77,0.00,,,0.00,WUHU216DAVISVP2,2013-09-24 14:27:00,
2013-09-24 10:29:00,56.4,49.3,29.26,SE,145,0.0,8.0,77,0.00,,,0.00,WUHU216DAVISVP2,2013-09-24 14:29:00,
2013-09-24 10:31:00,56.5,49.4,29.26,East,84,2.0,8.0,77,0.00,,,0.00,WUHU216DAVISVP2,2013-09-24 14:31:00,
2013-09-24 10:32:00,56.6,49.5,29.26,ESE,120,2.0,8.0,77,0.00,,,0.00,WUHU216DAVISVP2,2013-09-24 14:32:00,
2013-09-24 10:35:00,56.8,49.3,29.26,ESE,112,4.0,8.0,76,0.00,,,0.00,WUHU216DAVISVP2,2013-09-24 14:35:00,
2013-09-24 10:36:00,56.9,49.4,29.26,SSW,195,3.0,10.0,76,0.00,,,0.00,WUHU216DAVISVP2,2013-09-24 14:36:00,
2013-09-24 10:37:00,56.9,49.5,29.26,ESE,118,5.0,10.0,76,0.00,,,0.00,WUHU216DAVISVP2,2013-09-24 14:37:00,
2013-09-24 10:38:00,56.9,49.5,29.26,East,83,5.0,10.0,76,0.00,,,0.00,WUHU216DAVISVP2,2013-09-24 14:38:00,
2013-09-24 10:40:00,57.1,49.7,29.26,East,100,4.0,10.0,76,0.00,,,0.00,WUHU216DAVISVP2,2013-09-24 14:40:00,
2013-09-24 10:41:00,57.2,49.8,29.26,ESE,102,2.0,10.0,76,0.00,,,0.00,WUHU216DAVISVP2,2013-09-24 14:41:00,
2013-09-24 10:42:00,57.3,49.5,29.26,SSE,166,4.0,10.0,75,0.00,,,0.00,WUHU216DAVISVP2,2013-09-24 14:42:00,
2013-09-24 10:43:00,57.3,49.5,29.26,SSE,166,1.0,10.0,75,0.00,,,0.00,WUHU216DAVISVP2,2013-09-24 14:43:00,
2013-09-24 10:45:00,57.5,49.7,29.26,ESE,108,0.0,10.0,75,0.00,,,0.00,WUHU216DAVISVP2,2013-09-24 14:45:00,
2013-09-24 10:46:00,57.6,49.8,29.26,SSE,166,4.0,10.0,75,0.00,,,0.00,WUHU216DAVISVP2,2013-09-24 14:46:00,
2013-09-24 10:47:00,57.7,49.9,29.26,SSE,148,1.0,10.0,75,0.00,,,0.00,WUHU216DAVISVP2,2013-09-24 14:47:00,
2013-09-24 10:48:00,57.8,50.0,29.26,SW,215,0.0,10.0,75,0.00,,,0.00,WUHU216DAVISVP2,2013-09-24 14:48:00,
2013-09-24 10:51:00,58.0,50.2,29.26,ESE,106,4.0,10.0,75,0.00,,,0.00,WUHU216DAVISVP2,2013-09-24 14:51:00,
2013-09-24 10:53:00,58.1,50.0,29.25,SE,127,1.0,10.0,74,0.00,,,0.00,WUHU216DAVISVP2,2013-09-24 14:53:00,
2013-09-24 10:56:00,58.4,49.9,29.25,South,181,5.0,8.0,73,0.00,,,0.00,WUHU216DAVISVP2,2013-09-24 14:56:00,
2013-09-24 10:58:00,58.4,49.9,29.25,SE,125,4.0,8.0,73,0.00,,,0.00,WUHU216DAVISVP2,2013-09-24 14:58:00,
2013-09-24 10:59:00,58.4,49.5,29.25,SE,126,4.0,8.0,72,0.00,,,0.00,WUHU216DAVISVP2,2013-09-24 14:59:00,
2013-09-24 11:01:00,58.6,50.1,29.25,East,89,0.0,8.0,73,0.00,,,0.00,WUHU216DAVISVP2,2013-09-24 15:01:00,
2013-09-24 11:02:00,58.7,50.2,29.25,ESE,116,4.0,8.0,73,0.00,,,0.00,WUHU216DAVISVP2,2013-09-24 15:02:00,
2013-09-24 11:03:00,58.9,50.7,29.25,SW,233,1.0,8.0,74,0.00,,,0.00,WUHU216DAVISVP2,2013-09-24 15:03:00,
2013-09-24 11:04:00,59.1,50.6,29.25,ESE,109,5.0,8.0,73,0.00,,,0.00,WUHU216DAVISVP2,2013-09-24 15:04:00,
2013-09-24 11:06:00,59.3,50.4,29.25,East,97,2.0,9.0,72,0.00,,,0.00,WUHU216DAVISVP2,2013-09-24 15:06:00,
2013-09-24 11:07:00,59.4,50.5,29.25,East,95,0.0,9.0,72,0.00,,,0.00,WUHU216DAVISVP2,2013-09-24 15:07:00,
2013-09-24 11:08:00,59.6,50.3,29.25,ESE,114,4.0,9.0,71,0.00,,,0.00,WUHU216DAVISVP2,2013-09-24 15:08:00,
2013-09-24 11:09:00,59.6,49.9,29.25,ESE,116,6.0,9.0,70,0.00,,,0.00,WUHU216DAVISVP2,2013-09-24 15:09:00,
2013-09-24 11:11:00,59.5,49.8,29.25,SE,135,0.0,10.0,70,0.00,,,0.00,WUHU216DAVISVP2,2013-09-24 15:11:00,
2013-09-24 11:13:00,59.5,50.2,29.25,ENE,74,1.0,10.0,71,0.00,,,0.00,WUHU216DAVISVP2,2013-09-24 15:13:00,
2013-09-24 11:14:00,59.6,50.3,29.25,ESE,114,5.0,10.0,71,0.00,,,0.00,WUHU216DAVISVP2,2013-09-24 15:14:00,
2013-09-24 11:16:00,59.7,50.0,29.25,East,83,0.0,10.0,70,0.00,,,0.00,WUHU216DAVISVP2,2013-09-24 15:16:00,
2013-09-24 11:17:00,59.7,50.0,29.25,East,83,0.0,10.0,70,0.00,,,0.00,WUHU216DAVISVP2,2013-09-24 15:17:00,
2013-09-24 11:18:00,59.9,50.6,29.25,ENE,74,7.0,10.0,71,0.00,,,0.00,WUHU216DAVISVP2,2013-09-24 15:18:00,
2013-09-24 11:19:00,60.0,50.7,29.25,ESE,112,8.0,10.0,71,0.00,,,0.00,WUHU216DAVISVP2,2013-09-24 15:19:00,
2013-09-24 11:22:00,60.0,50.7,29.25,East,81,5.0,10.0,71,0.00,,,0.00,WUHU216DAVISVP2,2013-09-24 15:22:00,
2013-09-24 11:23:00,60.0,50.7,29.25,ESE,104,1.0,10.0,71,0.00,,,0.00,WUHU216DAVISVP2,2013-09-24 15:23:00,
2013-09-24 11:24:00,60.0,50.7,29.25,ESE,104,0.0,10.0,71,0.00,,,0.00,WUHU216DAVISVP2,2013-09-24 15:24:00,
2013-09-24 11:27:00,60.3,51.0,29.25,SE,139,6.0,10.0,71,0.00,,,0.00,WUHU216DAVISVP2,2013-09-24 15:27:00,
2013-09-24 11:29:00,60.2,50.1,29.25,ESE,110,4.0,10.0,69,0.00,,,0.00,WUHU216DAVISVP2,2013-09-24 15:29:00,
2013-09-24 11:30:00,60.2,50.1,29.25,SE,145,4.0,10.0,69,0.00,,,0.00,WUHU216DAVISVP2,2013-09-24 15:30:00,
2013-09-24 11:32:00,60.2,50.1,29.24,ESE,119,5.0,10.0,69,0.00,,,0.00,WUHU216DAVISVP2,2013-09-24 15:32:00,
2013-09-24 11:34:00,60.4,50.3,29.24,ENE,77,5.0,10.0,69,0.00,,,0.00,WUHU216DAVISVP2,2013-09-24 15:34:00,
2013-09-24 11:35:00,60.4,50.3,29.24,ESE,102,7.0,11.0,69,0.00,,,0.00,WUHU216DAVISVP2,2013-09-24 15:35:00,
2013-09-24 11:37:00,60.4,49.9,29.24,ESE,108,7.0,12.0,68,0.00,,,0.00,WUHU216DAVISVP2,2013-09-24 15:37:00,
2013-09-24 11:39:00,60.3,49.8,29.24,East,85,11.0,12.0,68,0.00,,,0.00,WUHU216DAVISVP2,2013-09-24 15:39:00,
2013-09-24 11:40:00,60.2,49.6,29.24,ESE,105,7.0,12.0,68,0.00,,,0.00,WUHU216DAVISVP2,2013-09-24 15:40:00,
2013-09-24 11:42:00,60.2,50.0,29.24,ESE,110,8.0,12.0,69,0.00,,,0.00,WUHU216DAVISVP2,2013-09-24 15:42:00,
2013-09-24 11:44:00,60.4,50.2,29.23,East,91,4.0,12.0,69,0.00,,,0.00,WUHU216DAVISVP2,2013-09-24 15:44:00,
2013-09-24 11:45:00,60.5,49.9,29.24,ESE,119,4.0,12.0,68,0.00,,,0.00,WUHU216DAVISVP2,2013-09-24 15:45:00,
2013-09-24 11:46:00,60.6,50.0,29.24,ESE,122,8.0,12.0,68,0.00,,,0.00,WUHU216DAVISVP2,2013-09-24 15:46:00,
2013-09-24 11:47:00,60.7,49.8,29.24,ESE,118,6.0,12.0,67,0.00,,,0.00,WUHU216DAVISVP2,2013-09-24 15:47:00,
2013-09-24 11:48:00,60.8,49.9,29.24,SE,133,4.0,12.0,67,0.00,,,0.00,WUHU216DAVISVP2,2013-09-24 15:48:00,
2013-09-24 11:49:00,60.9,50.0,29.24,ESE,119,1.0,12.0,67,0.00,,,0.00,WUHU216DAVISVP2,2013-09-24 15:49:00,
2013-09-24 11:50:00,61.0,50.1,29.24,East,88,1.0,12.0,67,0.00,,,0.00,WUHU216DAVISVP2,2013-09-24 15:50:00,
2013-09-24 11:52:00,61.1,49.8,29.24,East,100,6.0,13.0,66,0.00,,,0.00,WUHU216DAVISVP2,2013-09-24 15:52:00,
2013-09-24 11:53:00,61.1,49.4,29.24,SE,124,8.0,13.0,65,0.00,,,0.00,WUHU216DAVISVP2,2013-09-24 15:53:00,
2013-09-24 11:54:00,61.1,49.8,29.23,ESE,106,9.0,13.0,66,0.00,,,0.00,WUHU216DAVISVP2,2013-09-24 15:54:00,
2013-09-24 11:55:00,61.1,49.4,29.23,ESE,112,10.0,13.0,65,0.00,,,0.00,WUHU216DAVISVP2,2013-09-24 15:55:00,
2013-09-24 11:57:00,61.1,49.8,29.23,SE,142,8.0,13.0,66,0.00,,,0.00,WUHU216DAVISVP2,2013-09-24 15:57:00,
2013-09-24 11:58:00,61.2,49.5,29.23,East,79,5.0,13.0,65,0.00,,,0.00,WUHU216DAVISVP2,2013-09-24 15:58:00,
2013-09-24 11:59:00,61.2,49.5,29.23,East,96,6.0,13.0,65,0.00,,,0.00,WUHU216DAVISVP2,2013-09-24 15:59:00,
2013-09-24 12:00:00,61.3,50.0,29.23,SSE,157,6.0,13.0,66,0.00,,,0.00,WUHU216DAVISVP2,2013-09-24 16:00:00,
2013-09-24 12:02:00,61.4,49.3,29.23,SE,145,2.0,13.0,64,0.00,,,0.00,WUHU216DAVISVP2,2013-09-24 16:02:00,
2013-09-24 12:03:00,61.4,49.3,29.23,ESE,122,5.0,13.0,64,0.00,,,0.00,WUHU216DAVISVP2,2013-09-24 16:03:00,
2013-09-24 12:04:00,61.5,49.4,29.23,SE,125,8.0,13.0,64,0.00,,,0.00,WUHU216DAVISVP2,2013-09-24 16:04:00,
2013-09-24 12:05:00,61.5,49.8,29.23,SSE,152,5.0,13.0,65,0.00,,,0.00,WUHU216DAVISVP2,2013-09-24 16:05:00,
2013-09-24 12:07:00,61.5,49.4,29.23,East,81,5.0,13.0,64,0.00,,,0.00,WUHU216DAVISVP2,2013-09-24 16:07:00,
2013-09-24 12:08:00,61.5,49.8,29.23,ENE,68,2.0,13.0,65,0.00,,,0.00,WUHU216DAVISVP2,2013-09-24 16:08:00,
2013-09-24 12:09:00,61.5,49.8,29.22,ESE,120,6.0,13.0,65,0.00,,,0.00,WUHU216DAVISVP2,2013-09-24 16:09:00,
2013-09-24 12:10:00,61.6,49.9,29.22,ESE,110,3.0,13.0,65,0.00,,,0.00,WUHU216DAVISVP2,2013-09-24 16:10:00,
2013-09-24 12:12:00,61.8,50.5,29.22,East,93,5.0,10.0,66,0.00,,,0.00,WUHU216DAVISVP2,2013-09-24 16:12:00,
2013-09-24 12:13:00,62.0,50.3,29.22,East,81,6.0,10.0,65,0.00,,,0.00,WUHU216DAVISVP2,2013-09-24 16:13:00,
2013-09-24 12:14:00,62.1,50.3,29.22,ENE,76,4.0,10.0,65,0.00,,,0.00,WUHU216DAVISVP2,2013-09-24 16:14:00,
2013-09-24 12:15:00,62.2,50.0,29.22,East,97,7.0,10.0,64,0.00,,,0.00,WUHU216DAVISVP2,2013-09-24 16:15:00,
2013-09-24 12:16:00,62.3,50.5,29.22,ESE,110,6.0,10.0,65,0.00,,,0.00,WUHU216DAVISVP2,2013-09-24 16:16:00,
2013-09-24 12:17:00,62.3,50.5,29.22,East,82,4.0,10.0,65,0.00,,,0.00,WUHU216DAVISVP2,2013-09-24 16:17:00,
2013-09-24 12:18:00,62.3,50.1,29.22,ESE,121,4.0,10.0,64,0.00,,,0.00,WUHU216DAVISVP2,2013-09-24 16:18:00,
2013-09-24 12:20:00,62.4,50.2,29.22,ENE,65,6.0,10.0,64,0.00,,,0.00,WUHU216DAVISVP2,2013-09-24 16:20:00,
2013-09-24 12:21:00,62.2,49.6,29.22,ESE,102,9.0,12.0,63,0.00,,,0.00,WUHU216DAVISVP2,2013-09-24 16:21:00,
2013-09-24 12:22:00,62.1,49.9,29.22,East,87,5.0,12.0,64,0.00,,,0.00,WUHU216DAVISVP2,2013-09-24 16:22:00,
2013-09-24 12:24:00,62.0,49.8,29.22,ESE,103,6.0,12.0,64,0.00,,,0.00,WUHU216DAVISVP2,2013-09-24 16:24:00,
2013-09-24 12:25:00,62.0,49.8,29.22,ESE,114,10.0,12.0,64,0.00,,,0.00,WUHU216DAVISVP2,2013-09-24 16:25:00,
2013-09-24 12:26:00,62.0,49.8,29.22,SE,129,9.0,12.0,64,0.00,,,0.00,WUHU216DAVISVP2,2013-09-24 16:26:00,
2013-09-24 12:28:00,62.0,49.4,29.22,SSE,164,6.0,12.0,63,0.00,,,0.00,WUHU216DAVISVP2,2013-09-24 16:28:00,
2013-09-24 12:29:00,62.0,49.8,29.22,ESE,115,2.0,12.0,64,0.00,,,0.00,WUHU216DAVISVP2,2013-09-24 16:29:00,
2013-09-24 12:30:00,62.0,49.8,29.22,East,91,6.0,12.0,64,0.00,,,0.00,WUHU216DAVISVP2,2013-09-24 16:30:00,
2013-09-24 12:31:00,62.2,50.0,29.22,SE,143,1.0,12.0,64,0.00,,,0.00,WUHU216DAVISVP2,2013-09-24 16:31:00,
2013-09-24 12:33:00,62.3,50.5,29.22,East,101,9.0,12.0,65,0.00,,,0.00,WUHU216DAVISVP2,2013-09-24 16:33:00,
2013-09-24 12:34:00,62.6,50.8,29.22,East,83,5.0,12.0,65,0.00,,,0.00,WUHU216DAVISVP2,2013-09-24 16:34:00,
2013-09-24 12:35:00,62.7,50.1,29.22,South,175,4.0,12.0,63,0.00,,,0.00,WUHU216DAVISVP2,2013-09-24 16:35:00,
2013-09-24 12:36:00,62.7,50.1,29.22,ESE,118,3.0,12.0,63,0.00,,,0.00,WUHU216DAVISVP2,2013-09-24 16:36:00,
2013-09-24 12:37:00,62.9,50.7,29.22,ESE,107,4.0,12.0,64,0.00,,,0.00,WUHU216DAVISVP2,2013-09-24 16:37:00,
2013-09-24 12:38:00,63.0,50.8,29.22,SSE,164,3.0,12.0,64,0.00,,,0.00,WUHU216DAVISVP2,2013-09-24 16:38:00,
2013-09-24 12:39:00,63.0,50.2,29.21,SSE,164,9.0,12.0,63,0.00,,,0.00,WUHU216DAVISVP2,2013-09-24 16:39:00,
2013-09-24 12:41:00,63.1,50.3,29.21,ENE,75,5.0,11.0,63,0.00,,,0.00,WUHU216DAVISVP2,2013-09-24 16:41:00,
2013-09-24 12:42:00,63.1,49.9,29.21,ESE,111,6.0,12.0,62,0.00,,,0.00,WUHU216DAVISVP2,2013-09-24 16:42:00,
2013-09-24 12:43:00,63.0,49.8,29.21,SE,129,3.0,12.0,62,0.00,,,0.00,WUHU216DAVISVP2,2013-09-24 16:43:00,
2013-09-24 12:44:00,63.0,50.2,29.21,East,79,4.0,12.0,63,0.00,,,0.00,WUHU216DAVISVP2,2013-09-24 16:44:00,
2013-09-24 12:46:00,63.1,50.3,29.21,ESE,102,10.0,12.0,63,0.00,,,0.00,WUHU216DAVISVP2,2013-09-24 16:46:00,
2013-09-24 12:47:00,63.2,50.0,29.21,ESE,120,7.0,12.0,62,0.00,,,0.00,WUHU216DAVISVP2,2013-09-24 16:47:00,
2013-09-24 12:48:00,63.2,50.4,29.21,ENE,78,4.0,12.0,63,0.00,,,0.00,WUHU216DAVISVP2,2013-09-24 16:48:00,
2013-09-24 12:50:00,63.2,49.5,29.21,ENE,70,7.0,12.0,61,0.00,,,0.00,WUHU216DAVISVP2,2013-09-24 16:50:00,
2013-09-24 12:51:00,63.2,50.0,29.21,East,89,1.0,12.0,62,0.00,,,0.00,WUHU216DAVISVP2,2013-09-24 16:51:00,
2013-09-24 12:53:00,63.4,50.3,29.21,South,187,2.0,12.0,62,0.00,,,0.00,WUHU216DAVISVP2,2013-09-24 16:53:00,
2013-09-24 12:55:00,63.5,50.4,29.20,SSE,152,1.0,12.0,62,0.00,,,0.00,WUHU216DAVISVP2,2013-09-24 16:55:00,
2013-09-24 12:56:00,63.6,50.5,29.20,ESE,104,9.0,12.0,62,0.00,,,0.00,WUHU216DAVISVP2,2013-09-24 16:56:00,
2013-09-24 12:58:00,63.8,50.7,29.20,ESE,111,9.0,12.0,62,0.00,,,0.00,WUHU216DAVISVP2,2013-09-24 16:58:00,
2013-09-24 13:00:00,64.0,51.3,29.20,SE,131,8.0,12.0,63,0.00,,,0.00,WUHU216DAVISVP2,2013-09-24 17:00:00,
2013-09-24 13:01:00,64.0,50.4,29.20,East,85,5.0,12.0,61,0.00,,,0.00,WUHU216DAVISVP2,2013-09-24 17:01:00,
2013-09-24 13:03:00,64.2,50.6,29.20,ESE,116,4.0,12.0,61,0.00,,,0.00,WUHU216DAVISVP2,2013-09-24 17:03:00,
2013-09-24 13:05:00,64.3,50.3,29.20,ESE,116,4.0,12.0,60,0.00,,,0.00,WUHU216DAVISVP2,2013-09-24 17:05:00,
2013-09-24 13:06:00,64.4,49.9,29.20,East,85,5.0,12.0,59,0.00,,,0.00,WUHU216DAVISVP2,2013-09-24 17:06:00,
2013-09-24 13:08:00,64.3,49.8,29.20,SE,127,7.0,12.0,59,0.00,,,0.00,WUHU216DAVISVP2,2013-09-24 17:08:00,
2013-09-24 13:09:00,64.3,49.8,29.20,SSE,157,4.0,12.0,59,0.00,,,0.00,WUHU216DAVISVP2,2013-09-24 17:09:00,
2013-09-24 13:10:00,64.3,49.8,29.20,ESE,110,8.0,12.0,59,0.00,,,0.00,WUHU216DAVISVP2,2013-09-24 17:10:00,
2013-09-24 13:11:00,64.2,49.2,29.20,East,98,4.0,12.0,58,0.00,,,0.00,WUHU216DAVISVP2,2013-09-24 17:11:00,
2013-09-24 13:12:00,64.2,49.2,29.20,East,79,5.0,12.0,58,0.00,,,0.00,WUHU216DAVISVP2,2013-09-24 17:12:00,
2013-09-24 13:14:00,64.2,49.7,29.20,East,85,5.0,13.0,59,0.00,,,0.00,WUHU216DAVISVP2,2013-09-24 17:14:00,
2013-09-24 13:16:00,64.1,49.2,29.20,ESE,110,6.0,13.0,58,0.00,,,0.00,WUHU216DAVISVP2,2013-09-24 17:16:00,
2013-09-24 13:17:00,64.1,49.6,29.20,ESE,120,5.0,13.0,59,0.00,,,0.00,WUHU216DAVISVP2,2013-09-24 17:17:00,
2013-09-24 13:19:00,64.1,49.6,29.20,East,90,8.0,13.0,59,0.00,,,0.00,WUHU216DAVISVP2,2013-09-24 17:19:00,
2013-09-24 13:20:00,64.2,49.7,29.19,ESE,118,8.0,13.0,59,0.00,,,0.00,WUHU216DAVISVP2,2013-09-24 17:20:00,
2013-09-24 13:21:00,64.2,49.7,29.19,East,101,5.0,13.0,59,0.00,,,0.00,WUHU216DAVISVP2,2013-09-24 17:21:00,
2013-09-24 13:22:00,64.3,49.7,29.19,East,91,5.0,13.0,59,0.00,,,0.00,WUHU216DAVISVP2,2013-09-24 17:22:00,
2013-09-24 13:24:00,64.5,49.8,29.19,South,174,1.0,13.0,59,0.00,,,0.00,WUHU216DAVISVP2,2013-09-24 17:24:00,
2013-09-24 13:26:00,64.6,49.9,29.19,SE,143,5.0,13.0,59,0.00,,,0.00,WUHU216DAVISVP2,2013-09-24 17:26:00,
2013-09-24 13:27:00,64.7,49.6,29.19,ESE,117,6.0,13.0,58,0.00,,,0.00,WUHU216DAVISVP2,2013-09-24 17:27:00,
2013-09-24 13:29:00,64.7,49.6,29.19,ENE,58,4.0,13.0,58,0.00,,,0.00,WUHU216DAVISVP2,2013-09-24 17:29:00,
2013-09-24 13:31:00,64.9,49.8,29.19,East,89,4.0,13.0,58,0.00,,,0.00,WUHU216DAVISVP2,2013-09-24 17:31:00,
2013-09-24 13:32:00,65.0,49.9,29.19,ESE,107,5.0,13.0,58,0.00,,,0.00,WUHU216DAVISVP2,2013-09-24 17:32:00,
2013-09-24 13:34:00,65.2,50.0,29.19,SSE,168,5.0,13.0,58,0.00,,,0.00,WUHU216DAVISVP2,2013-09-24 17:34:00,
2013-09-24 13:36:00,65.2,49.2,29.19,ESE,107,4.0,13.0,56,0.00,,,0.00,WUHU216DAVISVP2,2013-09-24 17:36:00,
2013-09-24 13:37:00,65.2,49.2,29.19,SE,125,6.0,13.0,56,0.00,,,0.00,WUHU216DAVISVP2,2013-09-24 17:37:00,
2013-09-24 13:38:00,65.1,49.1,29.19,South,174,4.0,13.0,56,0.00,,,0.00,WUHU216DAVISVP2,2013-09-24 17:38:00,
2013-09-24 13:39:00,65.1,49.6,29.19,East,86,3.0,12.0,57,0.00,,,0.00,WUHU216DAVISVP2,2013-09-24 17:39:00,
2013-09-24 13:41:00,65.2,49.2,29.19,SE,132,8.0,12.0,56,0.00,,,0.00,WUHU216DAVISVP2,2013-09-24 17:41:00,
2013-09-24 13:42:00,65.2,49.2,29.19,ESE,122,8.0,12.0,56,0.00,,,0.00,WUHU216DAVISVP2,2013-09-24 17:42:00,
2013-09-24 13:43:00,65.0,48.0,29.19,SE,134,4.0,12.0,54,0.00,,,0.00,WUHU216DAVISVP2,2013-09-24 17:43:00,
2013-09-24 13:44:00,65.0,48.5,29.19,SSE,157,2.0,12.0,55,0.00,,,0.00,WUHU216DAVISVP2,2013-09-24 17:44:00,
2013-09-24 13:46:00,65.1,49.6,29.19,ESE,108,6.0,11.0,57,0.00,,,0.00,WUHU216DAVISVP2,2013-09-24 17:46:00,
2013-09-24 13:47:00,65.1,49.1,29.19,East,89,5.0,11.0,56,0.00,,,0.00,WUHU216DAVISVP2,2013-09-24 17:47:00,
2013-09-24 13:48:00,65.2,49.2,29.19,ESE,111,5.0,11.0,56,0.00,,,0.00,WUHU216DAVISVP2,2013-09-24 17:48:00,
2013-09-24 13:49:00,65.3,49.3,29.19,East,95,7.0,11.0,56,0.00,,,0.00,WUHU216DAVISVP2,2013-09-24 17:49:00,
2013-09-24 13:51:00,65.3,49.3,29.18,ENE,69,3.0,11.0,56,0.00,,,0.00,WUHU216DAVISVP2,2013-09-24 17:51:00,
2013-09-24 13:52:00,65.3,49.3,29.18,ENE,69,5.0,11.0,56,0.00,,,0.00,WUHU216DAVISVP2,2013-09-24 17:52:00,
2013-09-24 13:53:00,65.5,50.0,29.18,ENE,70,2.0,11.0,57,0.00,,,0.00,WUHU216DAVISVP2,2013-09-24 17:53:00,
2013-09-24 13:54:00,65.7,51.0,29.18,ENE,72,1.0,11.0,59,0.00,,,0.00,WUHU216DAVISVP2,2013-09-24 17:54:00,
2013-09-24 13:57:00,65.8,49.2,29.18,ESE,118,6.0,11.0,55,0.00,,,0.00,WUHU216DAVISVP2,2013-09-24 17:57:00,
2013-09-24 13:59:00,65.9,49.3,29.18,ESE,103,9.0,13.0,55,0.00,,,0.00,WUHU216DAVISVP2,2013-09-24 17:59:00,
2013-09-24 14:02:00,65.7,49.1,29.18,ESE,103,11.0,13.0,55,0.00,,,0.00,WUHU216DAVISVP2,2013-09-24 18:02:00,
2013-09-24 14:05:00,65.5,48.9,29.18,ESE,110,2.0,13.0,55,0.00,,,0.00,WUHU216DAVISVP2,2013-09-24 18:05:00,
2013-09-24 14:07:00,65.7,49.6,29.18,East,100,9.0,13.0,56,0.00,,,0.00,WUHU216DAVISVP2,2013-09-24 18:07:00,
2013-09-24 14:08:00,65.7,49.1,29.17,ESE,122,7.0,13.0,55,0.00,,,0.00,WUHU216DAVISVP2,2013-09-24 18:08:00,
2013-09-24 14:10:00,65.7,49.6,29.17,ENE,62,5.0,13.0,56,0.00,,,0.00,WUHU216DAVISVP2,2013-09-24 18:10:00,
2013-09-24 14:12:00,65.8,49.3,29.17,SW,229,5.0,13.0,55,0.00,,,0.00,WUHU216DAVISVP2,2013-09-24 18:12:00,
2013-09-24 14:13:00,65.8,49.8,29.17,SE,145,2.0,13.0,56,0.00,,,0.00,WUHU216DAVISVP2,2013-09-24 18:13:00,
2013-09-24 14:15:00,65.9,49.9,29.17,ESE,116,0.0,13.0,56,0.00,,,0.00,WUHU216DAVISVP2,2013-09-24 18:15:00,
2013-09-24 14:16:00,66.0,50.0,29.17,SSE,166,3.0,13.0,56,0.00,,,0.00,WUHU216DAVISVP2,2013-09-24 18:16:00,
2013-09-24 14:17:00,66.3,50.7,29.17,SSW,195,2.0,12.0,57,0.00,,,0.00,WUHU216DAVISVP2,2013-09-24 18:17:00,
2013-09-24 14:18:00,66.3,50.3,29.17,SW,220,5.0,12.0,56,0.00,,,0.00,WUHU216DAVISVP2,2013-09-24 18:18:00,
2013-09-24 14:20:00,66.6,50.5,29.17,SSW,195,2.0,12.0,56,0.00,,,0.00,WUHU216DAVISVP2,2013-09-24 18:20:00,
2013-09-24 14:22:00,66.7,50.1,29.17,East,100,7.0,10.0,55,0.00,,,0.00,WUHU216DAVISVP2,2013-09-24 18:22:00,
2013-09-24 14:23:00,66.7,49.1,29.17,ENE,58,5.0,10.0,53,0.00,,,0.00,WUHU216DAVISVP2,2013-09-24 18:23:00,
2013-09-24 14:25:00,66.6,49.0,29.17,East,85,5.0,10.0,53,0.00,,,0.00,WUHU216DAVISVP2,2013-09-24 18:25:00,
2013-09-24 14:27:00,66.5,49.4,29.17,SE,135,5.0,10.0,54,0.00,,,0.00,WUHU216DAVISVP2,2013-09-24 18:27:00,
2013-09-24 14:28:00,66.6,49.5,29.17,South,176,0.0,10.0,54,0.00,,,0.00,WUHU216DAVISVP2,2013-09-24 18:28:00,
2013-09-24 14:30:00,66.7,50.0,29.17,ESE,106,9.0,10.0,55,0.00,,,0.00,WUHU216DAVISVP2,2013-09-24 18:30:00,
2013-09-24 14:32:00,66.8,49.6,29.17,ESE,118,6.0,12.0,54,0.00,,,0.00,WUHU216DAVISVP2,2013-09-24 18:32:00,
2013-09-24 14:33:00,66.8,49.6,29.17,East,85,5.0,12.0,54,0.00,,,0.00,WUHU216DAVISVP2,2013-09-24 18:33:00,
2013-09-24 14:35:00,66.6,48.9,29.17,ESE,113,3.0,12.0,53,0.00,,,0.00,WUHU216DAVISVP2,2013-09-24 18:35:00,
2013-09-24 14:37:00,66.6,49.4,29.17,ENE,59,1.0,12.0,54,0.00,,,0.00,WUHU216DAVISVP2,2013-09-24 18:37:00,
2013-09-24 14:38:00,66.7,50.0,29.17,SSE,150,9.0,12.0,55,0.00,,,0.00,WUHU216DAVISVP2,2013-09-24 18:38:00,
2013-09-24 14:40:00,66.8,49.7,29.17,South,174,4.0,12.0,54,0.00,,,0.00,WUHU216DAVISVP2,2013-09-24 18:40:00,
2013-09-24 14:42:00,66.9,49.8,29.17,ESE,104,5.0,12.0,54,0.00,,,0.00,WUHU216DAVISVP2,2013-09-24 18:42:00,
2013-09-24 14:43:00,66.9,49.3,29.17,East,97,5.0,12.0,53,0.00,,,0.00,WUHU216DAVISVP2,2013-09-24 18:43:00,
2013-09-24 14:45:00,67.1,49.4,29.17,South,170,4.0,12.0,53,0.00,,,0.00,WUHU216DAVISVP2,2013-09-24 18:45:00,
2013-09-24 14:48:00,67.1,49.9,29.17,ENE,62,3.0,12.0,54,0.00,,,0.00,WUHU216DAVISVP2,2013-09-24 18:48:00,
2013-09-24 14:50:00,67.1,49.4,29.17,ESE,103,5.0,12.0,53,0.00,,,0.00,WUHU216DAVISVP2,2013-09-24 18:50:00,
2013-09-24 14:51:00,67.0,48.9,29.17,ESE,103,2.0,11.0,52,0.00,,,0.00,WUHU216DAVISVP2,2013-09-24 18:51:00,
2013-09-24 14:53:00,67.1,50.0,29.16,SE,137,3.0,11.0,54,0.00,,,0.00,WUHU216DAVISVP2,2013-09-24 18:53:00,
2013-09-24 14:54:00,67.1,50.0,29.16,ENE,69,6.0,11.0,54,0.00,,,0.00,WUHU216DAVISVP2,2013-09-24 18:54:00,
2013-09-24 14:55:00,67.3,50.2,29.16,East,89,6.0,11.0,54,0.00,,,0.00,WUHU216DAVISVP2,2013-09-24 18:55:00,
2013-09-24 14:56:00,67.3,50.2,29.16,East,101,6.0,11.0,54,0.00,,,0.00,WUHU216DAVISVP2,2013-09-24 18:56:00,
2013-09-24 14:58:00,67.4,49.8,29.17,ESE,122,2.0,11.0,53,0.00,,,0.00,WUHU216DAVISVP2,2013-09-24 18:58:00,
2013-09-24 14:59:00,67.4,49.8,29.16,ESE,110,5.0,11.0,53,0.00,,,0.00,WUHU216DAVISVP2,2013-09-24 18:59:00,
2013-09-24 15:00:00,67.5,49.9,29.17,ESE,108,5.0,11.0,53,0.00,,,0.00,WUHU216DAVISVP2,2013-09-24 19:00:00,
2013-09-24 15:01:00,67.5,49.9,29.17,ESE,110,5.0,11.0,53,0.00,,,0.00,WUHU216DAVISVP2,2013-09-24 19:01:00,
2013-09-24 15:03:00,67.7,50.0,29.16,South,172,6.0,11.0,53,0.00,,,0.00,WUHU216DAVISVP2,2013-09-24 19:03:00,
2013-09-24 15:04:00,67.7,49.5,29.16,SW,217,4.0,11.0,52,0.00,,,0.00,WUHU216DAVISVP2,2013-09-24 19:04:00,
2013-09-24 15:06:00,67.5,49.3,29.16,SSW,208,0.0,11.0,52,0.00,,,0.00,WUHU216DAVISVP2,2013-09-24 19:06:00,
2013-09-24 15:08:00,67.5,49.3,29.16,SW,214,1.0,11.0,52,0.00,,,0.00,WUHU216DAVISVP2,2013-09-24 19:08:00,
2013-09-24 15:09:00,67.6,49.4,29.16,SE,137,2.0,11.0,52,0.00,,,0.00,WUHU216DAVISVP2,2013-09-24 19:09:00,
2013-09-24 15:11:00,67.6,49.4,29.16,SSE,167,2.0,11.0,52,0.00,,,0.00,WUHU216DAVISVP2,2013-09-24 19:11:00,
2013-09-24 15:12:00,67.6,48.9,29.16,South,170,9.0,11.0,51,0.00,,,0.00,WUHU216DAVISVP2,2013-09-24 19:12:00,
2013-09-24 15:14:00,67.6,48.9,29.16,ENE,70,0.0,11.0,51,0.00,,,0.00,WUHU216DAVISVP2,2013-09-24 19:14:00,
2013-09-24 15:16:00,67.7,49.0,29.16,SE,145,5.0,11.0,51,0.00,,,0.00,WUHU216DAVISVP2,2013-09-24 19:16:00,
2013-09-24 15:17:00,67.6,48.3,29.16,ESE,115,3.0,11.0,50,0.00,,,0.00,WUHU216DAVISVP2,2013-09-24 19:17:00,
2013-09-24 15:19:00,67.6,48.3,29.16,ESE,108,4.0,11.0,50,0.00,,,0.00,WUHU216DAVISVP2,2013-09-24 19:19:00,
2013-09-24 15:21:00,67.6,48.3,29.16,ENE,60,0.0,11.0,50,0.00,,,0.00,WUHU216DAVISVP2,2013-09-24 19:21:00,
2013-09-24 15:22:00,67.7,48.4,29.16,ESE,104,6.0,11.0,50,0.00,,,0.00,WUHU216DAVISVP2,2013-09-24 19:22:00,
2013-09-24 15:24:00,67.8,49.1,29.16,ESE,112,4.0,10.0,51,0.00,,,0.00,WUHU216DAVISVP2,2013-09-24 19:24:00,
2013-09-24 15:26:00,67.9,48.6,29.16,SE,131,1.0,10.0,50,0.00,,,0.00,WUHU216DAVISVP2,2013-09-24 19:26:00,
2013-09-24 15:27:00,68.0,49.3,29.16,ENE,77,2.0,10.0,51,0.00,,,0.00,WUHU216DAVISVP2,2013-09-24 19:27:00,
2013-09-24 15:29:00,68.1,48.8,29.16,ESE,123,6.0,10.0,50,0.00,,,0.00,WUHU216DAVISVP2,2013-09-24 19:29:00,
2013-09-24 15:30:00,68.1,48.8,29.16,East,101,7.0,10.0,50,0.00,,,0.00,WUHU216DAVISVP2,2013-09-24 19:30:00,
2013-09-24 15:31:00,68.2,49.4,29.16,ESE,104,5.0,10.0,51,0.00,,,0.00,WUHU216DAVISVP2,2013-09-24 19:31:00,
2013-09-24 15:32:00,68.3,49.5,29.16,SE,125,1.0,10.0,51,0.00,,,0.00,WUHU216DAVISVP2,2013-09-24 19:32:00,
2013-09-24 15:34:00,68.3,48.4,29.16,SSE,154,5.0,8.0,49,0.00,,,0.00,WUHU216DAVISVP2,2013-09-24 19:34:00,
2013-09-24 15:35:00,68.3,48.4,29.16,SE,129,4.0,8.0,49,0.00,,,0.00,WUHU216DAVISVP2,2013-09-24 19:35:00,
2013-09-24 15:36:00,68.2,48.3,29.15,SE,139,5.0,8.0,49,0.00,,,0.00,WUHU216DAVISVP2,2013-09-24 19:36:00,
2013-09-24 15:38:00,68.1,48.8,29.15,East,89,5.0,8.0,50,0.00,,,0.00,WUHU216DAVISVP2,2013-09-24 19:38:00,
2013-09-24 15:40:00,68.2,48.9,29.15,ESE,110,4.0,11.0,50,0.00,,,0.00,WUHU216DAVISVP2,2013-09-24 19:40:00,
2013-09-24 15:41:00,68.3,48.4,29.15,ESE,118,4.0,11.0,49,0.00,,,0.00,WUHU216DAVISVP2,2013-09-24 19:41:00,
2013-09-24 15:43:00,68.3,49.0,29.15,ESE,116,7.0,11.0,50,0.00,,,0.00,WUHU216DAVISVP2,2013-09-24 19:43:00,
2013-09-24 15:45:00,68.2,47.8,29.15,East,93,5.0,11.0,48,0.00,,,0.00,WUHU216DAVISVP2,2013-09-24 19:45:00,
2013-09-24 15:46:00,68.1,47.7,29.15,East,93,0.0,11.0,48,0.00,,,0.00,WUHU216DAVISVP2,2013-09-24 19:46:00,
2013-09-24 15:48:00,68.2,48.9,29.15,SE,135,4.0,11.0,50,0.00,,,0.00,WUHU216DAVISVP2,2013-09-24 19:48:00,
2013-09-24 15:50:00,68.4,49.1,29.15,SE,137,2.0,11.0,50,0.00,,,0.00,WUHU216DAVISVP2,2013-09-24 19:50:00,
2013-09-24 15:51:00,68.4,48.5,29.15,East,86,2.0,11.0,49,0.00,,,0.00,WUHU216DAVISVP2,2013-09-24 19:51:00,
2013-09-24 15:53:00,68.4,49.1,29.15,ESE,116,5.0,11.0,50,0.00,,,0.00,WUHU216DAVISVP2,2013-09-24 19:53:00,
2013-09-24 15:55:00,68.6,48.7,29.15,ESE,116,4.0,11.0,49,0.00,,,0.00,WUHU216DAVISVP2,2013-09-24 19:55:00,
2013-09-24 15:56:00,68.6,48.7,29.15,East,89,5.0,11.0,49,0.00,,,0.00,WUHU216DAVISVP2,2013-09-24 19:56:00,
2013-09-24 15:57:00,68.6,48.7,29.15,East,80,5.0,11.0,49,0.00,,,0.00,WUHU216DAVISVP2,2013-09-24 19:57:00,
2013-09-24 15:58:00,68.6,48.7,29.15,SE,127,8.0,12.0,49,0.00,,,0.00,WUHU216DAVISVP2,2013-09-24 19:58:00,
2013-09-24 16:00:00,68.5,47.5,29.15,ESE,116,5.0,12.0,47,0.00,,,0.00,WUHU216DAVISVP2,2013-09-24 20:00:00,
2013-09-24 16:01:00,68.4,47.4,29.15,East,84,3.0,12.0,47,0.00,,,0.00,WUHU216DAVISVP2,2013-09-24 20:01:00,
2013-09-24 16:02:00,68.4,47.4,29.15,East,88,4.0,12.0,47,0.00,,,0.00,WUHU216DAVISVP2,2013-09-24 20:02:00,
2013-09-24 16:04:00,68.6,48.7,29.14,East,94,6.0,12.0,49,0.00,,,0.00,WUHU216DAVISVP2,2013-09-24 20:04:00,
2013-09-24 16:05:00,68.6,48.7,29.15,East,90,4.0,12.0,49,0.00,,,0.00,WUHU216DAVISVP2,2013-09-24 20:05:00,
2013-09-24 16:06:00,68.6,48.7,29.15,ESE,106,5.0,12.0,49,0.00,,,0.00,WUHU216DAVISVP2,2013-09-24 20:06:00,
2013-09-24 16:07:00,68.6,48.7,29.15,SE,139,4.0,12.0,49,0.00,,,0.00,WUHU216DAVISVP2,2013-09-24 20:07:00,
2013-09-24 16:09:00,68.6,48.1,29.14,ESE,108,6.0,12.0,48,0.00,,,0.00,WUHU216DAVISVP2,2013-09-24 20:09:00,
2013-09-24 16:11:00,68.6,48.1,29.15,ESE,106,8.0,12.0,48,0.00,,,0.00,WUHU216DAVISVP2,2013-09-24 20:11:00,
2013-09-24 16:12:00,68.6,48.1,29.14,ESE,120,6.0,12.0,48,0.00,,,0.00,WUHU216DAVISVP2,2013-09-24 20:12:00,
2013-09-24 16:14:00,68.5,47.5,29.14,ESE,113,2.0,12.0,47,0.00,,,0.00,WUHU216DAVISVP2,2013-09-24 20:14:00,
2013-09-24 16:16:00,68.5,48.0,29.14,East,91,6.0,12.0,48,0.00,,,0.00,WUHU216DAVISVP2,2013-09-24 20:16:00,
2013-09-24 16:17:00,68.5,48.0,29.14,SSW,206,5.0,11.0,48,0.00,,,0.00,WUHU216DAVISVP2,2013-09-24 20:17:00,
2013-09-24 16:19:00,68.6,48.1,29.14,SSE,148,4.0,11.0,48,0.00,,,0.00,WUHU216DAVISVP2,2013-09-24 20:19:00,
2013-09-24 16:21:00,68.6,48.1,29.14,SSE,166,6.0,11.0,48,0.00,,,0.00,WUHU216DAVISVP2,2013-09-24 20:21:00,
2013-09-24 16:22:00,68.6,48.1,29.14,ESE,120,5.0,11.0,48,0.00,,,0.00,WUHU216DAVISVP2,2013-09-24 20:22:00,
2013-09-24 16:23:00,68.6,47.6,29.14,SE,138,7.0,11.0,47,0.00,,,0.00,WUHU216DAVISVP2,2013-09-24 20:23:00,
2013-09-24 16:24:00,68.7,48.2,29.14,ESE,115,5.0,11.0,48,0.00,,,0.00,WUHU216DAVISVP2,2013-09-24 20:24:00,
2013-09-24 16:26:00,68.6,48.1,29.14,East,95,9.0,11.0,48,0.00,,,0.00,WUHU216DAVISVP2,2013-09-24 20:26:00,
2013-09-24 16:27:00,68.6,48.7,29.14,ESE,103,0.0,10.0,49,0.00,,,0.00,WUHU216DAVISVP2,2013-09-24 20:27:00,
2013-09-24 16:28:00,68.6,48.7,29.14,ESE,114,4.0,10.0,49,0.00,,,0.00,WUHU216DAVISVP2,2013-09-24 20:28:00,
2013-09-24 16:30:00,68.7,48.8,29.14,SE,138,6.0,9.0,49,0.00,,,0.00,WUHU216DAVISVP2,2013-09-24 20:30:00,
2013-09-24 16:31:00,68.7,48.8,29.14,East,89,4.0,9.0,49,0.00,,,0.00,WUHU216DAVISVP2,2013-09-24 20:31:00,
2013-09-24 16:32:00,68.8,49.5,29.14,South,170,8.0,9.0,50,0.00,,,0.00,WUHU216DAVISVP2,2013-09-24 20:32:00,
2013-09-24 16:33:00,68.8,48.9,29.14,SSE,168,1.0,10.0,49,0.00,,,0.00,WUHU216DAVISVP2,2013-09-24 20:33:00,
2013-09-24 16:35:00,68.7,48.8,29.14,SE,145,6.0,10.0,49,0.00,,,0.00,WUHU216DAVISVP2,2013-09-24 20:35:00,
2013-09-24 16:36:00,68.8,48.9,29.14,ESE,105,5.0,10.0,49,0.00,,,0.00,WUHU216DAVISVP2,2013-09-24 20:36:00,
2013-09-24 16:37:00,68.8,49.5,29.14,ESE,103,2.0,10.0,50,0.00,,,0.00,WUHU216DAVISVP2,2013-09-24 20:37:00,
2013-09-24 16:38:00,68.8,50.0,29.14,South,185,5.0,10.0,51,0.00,,,0.00,WUHU216DAVISVP2,2013-09-24 20:38:00,
2013-09-24 16:40:00,68.9,48.4,29.14,ENE,74,0.0,10.0,48,0.00,,,0.00,WUHU216DAVISVP2,2013-09-24 20:40:00,
2013-09-24 16:41:00,69.0,48.5,29.14,ENE,74,0.0,10.0,48,0.00,,,0.00,WUHU216DAVISVP2,2013-09-24 20:41:00,
2013-09-24 16:42:00,69.1,48.6,29.14,ENE,74,0.0,10.0,48,0.00,,,0.00,WUHU216DAVISVP2,2013-09-24 20:42:00,
2013-09-24 16:43:00,69.2,48.7,29.14,ENE,74,0.0,10.0,48,0.00,,,0.00,WUHU216DAVISVP2,2013-09-24 20:43:00,
2013-09-24 16:45:00,69.3,48.2,29.14,SSE,158,4.0,10.0,47,0.00,,,0.00,WUHU216DAVISVP2,2013-09-24 20:45:00,
2013-09-24 16:46:00,69.2,48.1,29.13,SSE,167,5.0,10.0,47,0.00,,,0.00,WUHU216DAVISVP2,2013-09-24 20:46:00,
2013-09-24 16:47:00,69.2,48.1,29.14,SSW,200,2.0,10.0,47,0.00,,,0.00,WUHU216DAVISVP2,2013-09-24 20:47:00,
2013-09-24 16:48:00,69.1,48.0,29.14,South,176,4.0,10.0,47,0.00,,,0.00,WUHU216DAVISVP2,2013-09-24 20:48:00,
2013-09-24 16:50:00,69.0,49.1,29.13,SSE,162,1.0,10.0,49,0.00,,,0.00,WUHU216DAVISVP2,2013-09-24 20:50:00,
2013-09-24 16:51:00,69.0,49.1,29.13,SW,216,4.0,9.0,49,0.00,,,0.00,WUHU216DAVISVP2,2013-09-24 20:51:00,
2013-09-24 16:52:00,69.0,48.5,29.14,ESE,112,5.0,9.0,48,0.00,,,0.00,WUHU216DAVISVP2,2013-09-24 20:52:00,
2013-09-24 16:53:00,69.0,48.5,29.14,SE,137,7.0,9.0,48,0.00,,,0.00,WUHU216DAVISVP2,2013-09-24 20:53:00,
2013-09-24 16:55:00,69.1,48.6,29.14,ESE,116,8.0,9.0,48,0.00,,,0.00,WUHU216DAVISVP2,2013-09-24 20:55:00,
2013-09-24 16:56:00,69.2,48.7,29.13,SSE,154,2.0,9.0,48,0.00,,,0.00,WUHU216DAVISVP2,2013-09-24 20:56:00,
2013-09-24 16:58:00,69.2,48.7,29.14,SE,126,6.0,9.0,48,0.00,,,0.00,WUHU216DAVISVP2,2013-09-24 20:58:00,
2013-09-24 16:59:00,69.3,48.8,29.13,ESE,118,4.0,9.0,48,0.00,,,0.00,WUHU216DAVISVP2,2013-09-24 20:59:00,
2013-09-24 17:01:00,69.3,48.8,29.13,East,97,7.0,10.0,48,0.00,,,0.00,WUHU216DAVISVP2,2013-09-24 21:01:00,
2013-09-24 17:03:00,69.3,48.8,29.13,ESE,106,10.0,10.0,48,0.00,,,0.00,WUHU216DAVISVP2,2013-09-24 21:03:00,
2013-09-24 17:04:00,69.2,48.7,29.13,East,97,1.0,10.0,48,0.00,,,0.00,WUHU216DAVISVP2,2013-09-24 21:04:00,
2013-09-24 17:06:00,69.3,48.8,29.13,ESE,106,4.0,10.0,48,0.00,,,0.00,WUHU216DAVISVP2,2013-09-24 21:06:00,
2013-09-24 17:07:00,69.3,48.8,29.13,ESE,118,1.0,10.0,48,0.00,,,0.00,WUHU216DAVISVP2,2013-09-24 21:07:00,
2013-09-24 17:08:00,69.3,48.8,29.13,SE,130,6.0,10.0,48,0.00,,,0.00,WUHU216DAVISVP2,2013-09-24 21:08:00,
2013-09-24 17:09:00,69.3,48.8,29.13,SE,144,6.0,10.0,48,0.00,,,0.00,WUHU216DAVISVP2,2013-09-24 21:09:00,
2013-09-24 17:12:00,69.3,48.8,29.12,ESE,106,6.0,10.0,48,0.00,,,0.00,WUHU216DAVISVP2,2013-09-24 21:12:00,
2013-09-24 17:13:00,69.3,48.8,29.12,SE,137,1.0,10.0,48,0.00,,,0.00,WUHU216DAVISVP2,2013-09-24 21:13:00,
2013-09-24 17:14:00,69.3,49.9,29.12,WSW,239,0.0,10.0,50,0.00,,,0.00,WUHU216DAVISVP2,2013-09-24 21:14:00,
2013-09-24 17:17:00,69.5,49.5,29.12,East,99,3.0,10.0,49,0.00,,,0.00,WUHU216DAVISVP2,2013-09-24 21:17:00,
2013-09-24 17:18:00,69.7,49.7,29.13,ESE,118,1.0,10.0,49,0.00,,,0.00,WUHU216DAVISVP2,2013-09-24 21:18:00,
2013-09-24 17:19:00,69.7,49.7,29.13,East,100,5.0,10.0,49,0.00,,,0.00,WUHU216DAVISVP2,2013-09-24 21:19:00,
2013-09-24 17:21:00,69.8,49.2,29.13,ESE,107,7.0,10.0,48,0.00,,,0.00,WUHU216DAVISVP2,2013-09-24 21:21:00,
2013-09-24 17:22:00,69.8,49.2,29.12,SE,125,1.0,9.0,48,0.00,,,0.00,WUHU216DAVISVP2,2013-09-24 21:22:00,
2013-09-24 17:23:00,69.9,49.3,29.12,East,97,4.0,9.0,48,0.00,,,0.00,WUHU216DAVISVP2,2013-09-24 21:23:00,
2013-09-24 17:24:00,69.9,49.3,29.12,East,92,4.0,9.0,48,0.00,,,0.00,WUHU216DAVISVP2,2013-09-24 21:24:00,
2013-09-24 17:26:00,69.9,49.9,29.12,East,93,7.0,11.0,49,0.00,,,0.00,WUHU216DAVISVP2,2013-09-24 21:26:00,
2013-09-24 17:27:00,69.9,49.3,29.12,ESE,109,9.0,11.0,48,0.00,,,0.00,WUHU216DAVISVP2,2013-09-24 21:27:00,
2013-09-24 17:28:00,69.9,49.3,29.12,SSE,158,0.0,11.0,48,0.00,,,0.00,WUHU216DAVISVP2,2013-09-24 21:28:00,
2013-09-24 17:29:00,69.9,49.3,29.12,SSE,158,0.0,11.0,48,0.00,,,0.00,WUHU216DAVISVP2,2013-09-24 21:29:00,
2013-09-24 17:32:00,69.8,48.7,29.12,ESE,114,5.0,11.0,47,0.00,,,0.00,WUHU216DAVISVP2,2013-09-24 21:32:00,
2013-09-24 17:33:00,69.8,48.7,29.12,ESE,122,3.0,11.0,47,0.00,,,0.00,WUHU216DAVISVP2,2013-09-24 21:33:00,
2013-09-24 17:34:00,69.8,48.7,29.12,ESE,122,1.0,11.0,47,0.00,,,0.00,WUHU216DAVISVP2,2013-09-24 21:34:00,
2013-09-24 17:37:00,69.9,49.3,29.12,SSW,212,1.0,11.0,48,0.00,,,0.00,WUHU216DAVISVP2,2013-09-24 21:37:00,
2013-09-24 17:38:00,69.9,49.3,29.12,SSW,212,0.0,11.0,48,0.00,,,0.00,WUHU216DAVISVP2,2013-09-24 21:38:00,
2013-09-24 17:39:00,70.0,49.4,29.12,SSW,211,0.0,11.0,48,0.00,,,0.00,WUHU216DAVISVP2,2013-09-24 21:39:00,
2013-09-24 17:42:00,70.2,49.0,29.12,SE,137,4.0,11.0,47,0.00,,,0.00,WUHU216DAVISVP2,2013-09-24 21:42:00,
2013-09-24 17:43:00,70.2,49.0,29.12,ENE,75,2.0,11.0,47,0.00,,,0.00,WUHU216DAVISVP2,2013-09-24 21:43:00,
2013-09-24 17:44:00,70.2,49.0,29.12,SE,126,4.0,11.0,47,0.00,,,0.00,WUHU216DAVISVP2,2013-09-24 21:44:00,
2013-09-24 17:45:00,70.2,49.0,29.12,SE,125,6.0,11.0,47,0.00,,,0.00,WUHU216DAVISVP2,2013-09-24 21:45:00,
2013-09-24 17:47:00,70.1,48.4,29.12,ESE,104,6.0,9.0,46,0.00,,,0.00,WUHU216DAVISVP2,2013-09-24 21:47:00,
2013-09-24 17:48:00,70.0,48.3,29.12,East,97,3.0,9.0,46,0.00,,,0.00,WUHU216DAVISVP2,2013-09-24 21:48:00,
2013-09-24 17:49:00,69.9,48.7,29.12,ESE,113,5.0,9.0,47,0.00,,,0.00,WUHU216DAVISVP2,2013-09-24 21:49:00,
2013-09-24 17:50:00,69.9,48.7,29.12,SE,126,0.0,9.0,47,0.00,,,0.00,WUHU216DAVISVP2,2013-09-24 21:50:00,
2013-09-24 17:52:00,70.0,49.4,29.12,East,96,1.0,9.0,48,0.00,,,0.00,WUHU216DAVISVP2,2013-09-24 21:52:00,
2013-09-24 17:54:00,70.2,50.2,29.13,ESE,106,0.0,9.0,49,0.00,,,0.00,WUHU216DAVISVP2,2013-09-24 21:54:00,
2013-09-24 17:55:00,70.2,50.2,29.13,East,91,1.0,9.0,49,0.00,,,0.00,WUHU216DAVISVP2,2013-09-24 21:55:00,
2013-09-24 17:58:00,70.3,49.1,29.13,SW,214,0.0,9.0,47,0.00,,,0.00,WUHU216DAVISVP2,2013-09-24 21:58:00,
2013-09-24 17:59:00,70.3,49.1,29.13,SSW,193,0.0,9.0,47,0.00,,,0.00,WUHU216DAVISVP2,2013-09-24 21:59:00,
2013-09-24 18:01:00,70.3,48.5,29.13,East,100,0.0,9.0,46,0.00,,,0.00,WUHU216DAVISVP2,2013-09-24 22:01:00,
2013-09-24 18:03:00,70.3,48.5,29.13,ESE,121,5.0,9.0,46,0.00,,,0.00,WUHU216DAVISVP2,2013-09-24 22:03:00,
2013-09-24 18:04:00,70.2,48.4,29.13,ESE,109,6.0,9.0,46,0.00,,,0.00,WUHU216DAVISVP2,2013-09-24 22:04:00,
2013-09-24 18:05:00,70.2,48.4,29.13,SE,132,2.0,9.0,46,0.00,,,0.00,WUHU216DAVISVP2,2013-09-24 22:05:00,
2013-09-24 18:06:00,70.1,48.9,29.13,ESE,118,2.0,7.0,47,0.00,,,0.00,WUHU216DAVISVP2,2013-09-24 22:06:00,
2013-09-24 18:09:00,69.9,48.8,29.13,ESE,112,0.0,7.0,47,0.00,,,0.00,WUHU216DAVISVP2,2013-09-24 22:09:00,
2013-09-24 18:10:00,69.9,49.3,29.13,ESE,112,0.0,7.0,48,0.00,,,0.00,WUHU216DAVISVP2,2013-09-24 22:10:00,
2013-09-24 18:11:00,69.8,49.2,29.14,SE,132,4.0,7.0,48,0.00,,,0.00,WUHU216DAVISVP2,2013-09-24 22:11:00,
2013-09-24 18:14:00,69.7,49.2,29.13,East,85,1.0,7.0,48,0.00,,,0.00,WUHU216DAVISVP2,2013-09-24 22:14:00,
2013-09-24 18:15:00,69.7,49.2,29.13,ESE,102,2.0,7.0,48,0.00,,,0.00,WUHU216DAVISVP2,2013-09-24 22:15:00,
2013-09-24 18:17:00,69.7,49.2,29.13,ENE,78,2.0,7.0,48,0.00,,,0.00,WUHU216DAVISVP2,2013-09-24 22:17:00,
2013-09-24 18:20:00,69.6,48.5,29.13,East,99,8.0,9.0,47,0.00,,,0.00,WUHU216DAVISVP2,2013-09-24 22:20:00,
2013-09-24 18:21:00,69.5,48.4,29.13,East,101,4.0,9.0,47,0.00,,,0.00,WUHU216DAVISVP2,2013-09-24 22:21:00,
2013-09-24 18:22:00,69.5,48.9,29.13,ESE,111,1.0,9.0,48,0.00,,,0.00,WUHU216DAVISVP2,2013-09-24 22:22:00,
2013-09-24 18:25:00,69.4,48.9,29.13,ESE,104,0.0,9.0,48,0.00,,,0.00,WUHU216DAVISVP2,2013-09-24 22:25:00,
2013-09-24 18:26:00,69.4,48.9,29.13,East,97,1.0,9.0,48,0.00,,,0.00,WUHU216DAVISVP2,2013-09-24 22:26:00,
2013-09-24 18:27:00,69.5,49.0,29.13,ENE,72,2.0,9.0,48,0.00,,,0.00,WUHU216DAVISVP2,2013-09-24 22:27:00,
2013-09-24 18:30:00,69.6,49.6,29.13,ENE,72,2.0,9.0,49,0.00,,,0.00,WUHU216DAVISVP2,2013-09-24 22:30:00,
2013-09-24 18:31:00,69.6,49.6,29.13,ENE,72,1.0,9.0,49,0.00,,,0.00,WUHU216DAVISVP2,2013-09-24 22:31:00,
2013-09-24 18:32:00,69.6,49.6,29.13,ENE,72,1.0,9.0,49,0.00,,,0.00,WUHU216DAVISVP2,2013-09-24 22:32:00,
2013-09-24 18:35:00,69.6,49.0,29.13,East,81,4.0,9.0,48,0.00,,,0.00,WUHU216DAVISVP2,2013-09-24 22:35:00,
2013-09-24 18:36:00,69.6,49.0,29.13,East,81,1.0,9.0,48,0.00,,,0.00,WUHU216DAVISVP2,2013-09-24 22:36:00,
2013-09-24 18:37:00,69.5,48.9,29.13,East,81,2.0,9.0,48,0.00,,,0.00,WUHU216DAVISVP2,2013-09-24 22:37:00,
2013-09-24 18:40:00,69.4,48.9,29.14,East,81,0.0,6.0,48,0.00,,,0.00,WUHU216DAVISVP2,2013-09-24 22:40:00,
2013-09-24 18:41:00,69.5,48.9,29.14,East,81,0.0,6.0,48,0.00,,,0.00,WUHU216DAVISVP2,2013-09-24 22:41:00,
2013-09-24 18:42:00,69.5,49.5,29.14,East,81,0.0,6.0,49,0.00,,,0.00,WUHU216DAVISVP2,2013-09-24 22:42:00,
2013-09-24 18:45:00,69.7,49.7,29.14,East,81,0.0,5.0,49,0.00,,,0.00,WUHU216DAVISVP2,2013-09-24 22:45:00,
2013-09-24 18:46:00,69.7,49.7,29.14,East,81,0.0,5.0,49,0.00,,,0.00,WUHU216DAVISVP2,2013-09-24 22:46:00,
2013-09-24 18:47:00,69.7,49.1,29.14,East,81,2.0,5.0,48,0.00,,,0.00,WUHU216DAVISVP2,2013-09-24 22:47:00,
2013-09-24 18:48:00,69.7,49.1,29.14,East,81,1.0,5.0,48,0.00,,,0.00,WUHU216DAVISVP2,2013-09-24 22:48:00,
2013-09-24 18:50:00,69.6,49.6,29.13,East,81,1.0,5.0,49,0.00,,,0.00,WUHU216DAVISVP2,2013-09-24 22:50:00,
2013-09-24 18:51:00,69.6,49.6,29.13,East,81,1.0,5.0,49,0.00,,,0.00,WUHU216DAVISVP2,2013-09-24 22:51:00,
2013-09-24 18:52:00,69.5,49.5,29.13,East,81,1.0,5.0,49,0.00,,,0.00,WUHU216DAVISVP2,2013-09-24 22:52:00,
2013-09-24 18:54:00,69.4,49.9,29.14,East,81,1.0,4.0,50,0.00,,,0.00,WUHU216DAVISVP2,2013-09-24 22:54:00,
2013-09-24 18:55:00,69.3,50.9,29.13,East,81,0.0,4.0,52,0.00,,,0.00,WUHU216DAVISVP2,2013-09-24 22:55:00,
2013-09-24 18:56:00,69.3,50.9,29.13,East,81,0.0,4.0,52,0.00,,,0.00,WUHU216DAVISVP2,2013-09-24 22:56:00,
2013-09-24 18:57:00,69.2,50.3,29.13,East,81,4.0,4.0,51,0.00,,,0.00,WUHU216DAVISVP2,2013-09-24 22:57:00,
2013-09-24 18:59:00,69.1,49.7,29.13,East,81,0.0,4.0,50,0.00,,,0.00,WUHU216DAVISVP2,2013-09-24 22:59:00,
2013-09-24 19:01:00,69.0,50.7,29.14,East,81,0.0,4.0,52,0.00,,,0.00,WUHU216DAVISVP2,2013-09-24 23:01:00,
2013-09-24 19:02:00,69.0,51.3,29.13,East,81,0.0,4.0,53,0.00,,,0.00,WUHU216DAVISVP2,2013-09-24 23:02:00,
2013-09-24 19:04:00,68.9,51.2,29.14,East,81,0.0,4.0,53,0.00,,,0.00,WUHU216DAVISVP2,2013-09-24 23:04:00,
2013-09-24 19:06:00,68.8,52.1,29.13,East,81,0.0,4.0,55,0.00,,,0.00,WUHU216DAVISVP2,2013-09-24 23:06:00,
2013-09-24 19:07:00,68.7,52.5,29.13,East,81,0.0,4.0,56,0.00,,,0.00,WUHU216DAVISVP2,2013-09-24 23:07:00,
2013-09-24 19:09:00,68.5,52.2,29.13,East,81,0.0,4.0,56,0.00,,,0.00,WUHU216DAVISVP2,2013-09-24 23:09:00,
2013-09-24 19:11:00,68.4,52.6,29.13,East,81,0.0,4.0,57,0.00,,,0.00,WUHU216DAVISVP2,2013-09-24 23:11:00,
2013-09-24 19:12:00,68.3,52.9,29.13,East,81,0.0,4.0,58,0.00,,,0.00,WUHU216DAVISVP2,2013-09-24 23:12:00,
2013-09-24 19:14:00,68.2,53.3,29.13,East,81,0.0,4.0,59,0.00,,,0.00,WUHU216DAVISVP2,2013-09-24 23:14:00,
2013-09-24 19:16:00,68.0,53.1,29.13,East,81,0.0,4.0,59,0.00,,,0.00,WUHU216DAVISVP2,2013-09-24 23:16:00,
2013-09-24 19:17:00,68.0,53.1,29.13,East,81,0.0,2.0,59,0.00,,,0.00,WUHU216DAVISVP2,2013-09-24 23:17:00,
2013-09-24 19:20:00,67.6,52.3,29.13,East,81,0.0,2.0,58,0.00,,,0.00,WUHU216DAVISVP2,2013-09-24 23:20:00,
2013-09-24 19:21:00,67.5,53.1,29.13,East,81,0.0,2.0,60,0.00,,,0.00,WUHU216DAVISVP2,2013-09-24 23:21:00,
2013-09-24 19:22:00,67.4,52.6,29.13,East,81,0.0,2.0,59,0.00,,,0.00,WUHU216DAVISVP2,2013-09-24 23:22:00,
2013-09-24 19:24:00,67.1,51.4,29.13,East,81,0.0,2.0,57,0.00,,,0.00,WUHU216DAVISVP2,2013-09-24 23:24:00,
2013-09-24 19:25:00,66.8,51.5,29.12,East,81,0.0,4.0,58,0.00,,,0.00,WUHU216DAVISVP2,2013-09-24 23:25:00,
2013-09-24 19:26:00,66.7,51.5,29.12,East,81,0.0,4.0,58,0.00,,,0.00,WUHU216DAVISVP2,2013-09-24 23:26:00,
2013-09-24 19:27:00,66.6,51.8,29.12,East,81,0.0,4.0,59,0.00,,,0.00,WUHU216DAVISVP2,2013-09-24 23:27:00,
2013-09-24 19:29:00,66.2,51.4,29.12,East,81,2.0,4.0,59,0.00,,,0.00,WUHU216DAVISVP2,2013-09-24 23:29:00,
2013-09-24 19:30:00,65.9,51.2,29.12,East,81,1.0,4.0,59,0.00,,,0.00,WUHU216DAVISVP2,2013-09-24 23:30:00,
2013-09-24 19:31:00,65.7,51.4,29.12,East,81,0.0,4.0,60,0.00,,,0.00,WUHU216DAVISVP2,2013-09-24 23:31:00,
2013-09-24 19:32:00,65.6,51.3,29.12,East,81,0.0,4.0,60,0.00,,,0.00,WUHU216DAVISVP2,2013-09-24 23:32:00,
2013-09-24 19:33:00,65.5,51.2,29.12,East,81,0.0,4.0,60,0.00,,,0.00,WUHU216DAVISVP2,2013-09-24 23:33:00,
2013-09-24 19:34:00,65.3,51.5,29.12,East,81,0.0,4.0,61,0.00,,,0.00,WUHU216DAVISVP2,2013-09-24 23:34:00,
2013-09-24 19:35:00,65.1,51.9,29.12,East,81,0.0,4.0,62,0.00,,,0.00,WUHU216DAVISVP2,2013-09-24 23:35:00,
2013-09-24 19:37:00,65.0,51.8,29.12,East,81,0.0,4.0,62,0.00,,,0.00,WUHU216DAVISVP2,2013-09-24 23:37:00,
2013-09-24 19:38:00,64.8,51.6,29.12,East,81,0.0,4.0,62,0.00,,,0.00,WUHU216DAVISVP2,2013-09-24 23:38:00,
2013-09-24 19:39:00,64.6,51.3,29.12,East,81,0.0,4.0,62,0.00,,,0.00,WUHU216DAVISVP2,2013-09-24 23:39:00,
2013-09-24 19:41:00,64.4,52.0,29.12,East,81,0.0,4.0,64,0.00,,,0.00,WUHU216DAVISVP2,2013-09-24 23:41:00,
2013-09-24 19:42:00,64.3,52.3,29.12,East,81,0.0,4.0,65,0.00,,,0.00,WUHU216DAVISVP2,2013-09-24 23:42:00,
2013-09-24 19:43:00,64.2,52.2,29.12,East,81,1.0,4.0,65,0.00,,,0.00,WUHU216DAVISVP2,2013-09-24 23:43:00,
2013-09-24 19:44:00,64.0,52.0,29.12,East,81,0.0,2.0,65,0.00,,,0.00,WUHU216DAVISVP2,2013-09-24 23:44:00,
2013-09-24 19:46:00,63.8,51.4,29.12,East,81,0.0,2.0,64,0.00,,,0.00,WUHU216DAVISVP2,2013-09-24 23:46:00,
2013-09-24 19:47:00,63.7,51.7,29.12,East,81,0.0,2.0,65,0.00,,,0.00,WUHU216DAVISVP2,2013-09-24 23:47:00,
2013-09-24 19:48:00,63.6,51.2,29.12,East,81,0.0,2.0,64,0.00,,,0.00,WUHU216DAVISVP2,2013-09-24 23:48:00,
2013-09-24 19:50:00,63.4,51.0,29.12,East,81,0.0,1.0,64,0.00,,,0.00,WUHU216DAVISVP2,2013-09-24 23:50:00,
2013-09-24 19:51:00,63.3,50.9,29.12,East,81,0.0,1.0,64,0.00,,,0.00,WUHU216DAVISVP2,2013-09-24 23:51:00,
2013-09-24 19:52:00,63.2,51.2,29.12,East,81,0.0,1.0,65,0.00,,,0.00,WUHU216DAVISVP2,2013-09-24 23:52:00,
2013-09-24 19:53:00,63.2,51.2,29.13,East,81,0.0,1.0,65,0.00,,,0.00,WUHU216DAVISVP2,2013-09-24 23:53:00,
2013-09-24 19:55:00,63.0,51.2,29.12,East,81,0.0,1.0,65,0.00,,,0.00,WUHU216DAVISVP2,2013-09-24 23:55:00,
2013-09-24 19:56:00,62.9,51.1,29.13,East,81,0.0,1.0,65,0.00,,,0.00,WUHU216DAVISVP2,2013-09-24 23:56:00,
2013-09-24 19:57:00,62.8,51.0,29.13,East,81,0.0,1.0,65,0.00,,,0.00,WUHU216DAVISVP2,2013-09-24 23:57:00,
2013-09-24 19:58:00,62.7,50.9,29.13,East,81,0.0,1.0,65,0.00,,,0.00,WUHU216DAVISVP2,2013-09-24 23:58:00,
2013-09-24 20:00:00,62.7,50.9,29.13,East,81,0.0,1.0,65,0.00,,,0.00,WUHU216DAVISVP2,2013-09-25 00:00:00,
2013-09-24 20:01:00,62.6,51.1,29.12,East,81,0.0,1.0,66,0.00,,,0.00,WUHU216DAVISVP2,2013-09-25 00:01:00,
2013-09-24 20:02:00,62.5,50.6,29.12,East,81,0.0,1.0,65,0.00,,,0.00,WUHU216DAVISVP2,2013-09-25 00:02:00,
2013-09-24 20:03:00,62.5,50.6,29.12,East,81,0.0,1.0,65,0.00,,,0.00,WUHU216DAVISVP2,2013-09-25 00:03:00,
2013-09-24 20:04:00,62.4,50.5,29.12,East,81,0.0,1.0,65,0.00,,,0.00,WUHU216DAVISVP2,2013-09-25 00:04:00,
2013-09-24 20:05:00,62.4,50.5,29.13,East,81,0.0,1.0,65,0.00,,,0.00,WUHU216DAVISVP2,2013-09-25 00:05:00,
2013-09-24 20:07:00,62.4,50.6,29.13,East,81,0.0,1.0,65,0.00,,,0.00,WUHU216DAVISVP2,2013-09-25 00:07:00,
2013-09-24 20:08:00,62.3,50.5,29.13,East,81,0.0,1.0,65,0.00,,,0.00,WUHU216DAVISVP2,2013-09-25 00:08:00,
2013-09-24 20:09:00,62.3,50.5,29.13,East,81,0.0,1.0,65,0.00,,,0.00,WUHU216DAVISVP2,2013-09-25 00:09:00,
2013-09-24 20:10:00,62.3,50.5,29.13,East,81,0.0,1.0,65,0.00,,,0.00,WUHU216DAVISVP2,2013-09-25 00:10:00,
2013-09-24 20:12:00,62.2,50.4,29.13,East,81,0.0,1.0,65,0.00,,,0.00,WUHU216DAVISVP2,2013-09-25 00:12:00,
2013-09-24 20:13:00,62.1,50.3,29.13,East,81,0.0,1.0,65,0.00,,,0.00,WUHU216DAVISVP2,2013-09-25 00:13:00,
2013-09-24 20:14:00,62.1,50.3,29.13,East,81,0.0,1.0,65,0.00,,,0.00,WUHU216DAVISVP2,2013-09-25 00:14:00,
2013-09-24 20:15:00,62.0,50.3,29.13,East,81,0.0,1.0,65,0.00,,,0.00,WUHU216DAVISVP2,2013-09-25 00:15:00,
2013-09-24 20:17:00,62.0,50.5,29.13,East,81,0.0,1.0,66,0.00,,,0.00,WUHU216DAVISVP2,2013-09-25 00:17:00,
2013-09-24 20:18:00,62.0,50.5,29.13,East,81,0.0,1.0,66,0.00,,,0.00,WUHU216DAVISVP2,2013-09-25 00:18:00,
2013-09-24 20:19:00,61.9,50.4,29.13,East,81,0.0,1.0,66,0.00,,,0.00,WUHU216DAVISVP2,2013-09-25 00:19:00,
2013-09-24 20:20:00,61.8,50.3,29.13,East,81,0.0,1.0,66,0.00,,,0.00,WUHU216DAVISVP2,2013-09-25 00:20:00,
2013-09-24 20:23:00,61.7,49.8,29.13,East,81,0.0,1.0,65,0.00,,,0.00,WUHU216DAVISVP2,2013-09-25 00:23:00,
2013-09-24 20:24:00,61.6,49.7,29.13,East,81,0.0,1.0,65,0.00,,,0.00,WUHU216DAVISVP2,2013-09-25 00:24:00,
2013-09-24 20:25:00,61.6,50.1,29.13,East,81,0.0,1.0,66,0.00,,,0.00,WUHU216DAVISVP2,2013-09-25 00:25:00,
2013-09-24 20:28:00,61.5,50.2,29.13,East,81,2.0,2.0,66,0.00,,,0.00,WUHU216DAVISVP2,2013-09-25 00:28:00,
2013-09-24 20:30:00,61.4,50.1,29.13,East,81,0.0,2.0,66,0.00,,,0.00,WUHU216DAVISVP2,2013-09-25 00:30:00,
2013-09-24 20:31:00,61.4,50.1,29.13,East,81,1.0,2.0,66,0.00,,,0.00,WUHU216DAVISVP2,2013-09-25 00:31:00,
2013-09-24 20:33:00,61.4,50.1,29.13,East,81,0.0,2.0,66,0.00,,,0.00,WUHU216DAVISVP2,2013-09-25 00:33:00,
2013-09-24 20:34:00,61.4,50.1,29.13,East,81,2.0,2.0,66,0.00,,,0.00,WUHU216DAVISVP2,2013-09-25 00:34:00,
2013-09-24 20:35:00,61.3,49.8,29.13,East,81,1.0,2.0,66,0.00,,,0.00,WUHU216DAVISVP2,2013-09-25 00:35:00,
2013-09-24 20:36:00,61.3,49.8,29.13,East,81,1.0,2.0,66,0.00,,,0.00,WUHU216DAVISVP2,2013-09-25 00:36:00,
2013-09-24 20:39:00,61.2,49.3,29.13,East,81,2.0,4.0,65,0.00,,,0.00,WUHU216DAVISVP2,2013-09-25 00:39:00,
2013-09-24 20:40:00,61.2,49.3,29.13,East,81,1.0,4.0,65,0.00,,,0.00,WUHU216DAVISVP2,2013-09-25 00:40:00,
2013-09-24 20:41:00,61.2,49.3,29.13,East,81,0.0,4.0,65,0.00,,,0.00,WUHU216DAVISVP2,2013-09-25 00:41:00,
2013-09-24 20:44:00,61.2,50.2,29.13,East,81,0.0,4.0,67,0.00,,,0.00,WUHU216DAVISVP2,2013-09-25 00:44:00,
2013-09-24 20:45:00,61.1,49.7,29.13,East,81,1.0,4.0,66,0.00,,,0.00,WUHU216DAVISVP2,2013-09-25 00:45:00,
2013-09-24 20:46:00,61.1,49.7,29.13,East,81,1.0,4.0,66,0.00,,,0.00,WUHU216DAVISVP2,2013-09-25 00:46:00,
2013-09-24 20:48:00,61.0,49.6,29.13,East,81,0.0,4.0,66,0.00,,,0.00,WUHU216DAVISVP2,2013-09-25 00:48:00,
2013-09-24 20:49:00,61.0,49.6,29.13,East,81,2.0,4.0,66,0.00,,,0.00,WUHU216DAVISVP2,2013-09-25 00:49:00,
2013-09-24 20:50:00,61.0,49.6,29.13,East,81,1.0,4.0,66,0.00,,,0.00,WUHU216DAVISVP2,2013-09-25 00:50:00,
2013-09-24 20:51:00,61.0,49.6,29.13,East,81,0.0,4.0,66,0.00,,,0.00,WUHU216DAVISVP2,2013-09-25 00:51:00,
2013-09-24 20:53:00,61.0,49.6,29.13,East,81,1.0,4.0,66,0.00,,,0.00,WUHU216DAVISVP2,2013-09-25 00:53:00,
2013-09-24 20:54:00,60.9,49.5,29.13,East,81,1.0,4.0,66,0.00,,,0.00,WUHU216DAVISVP2,2013-09-25 00:54:00,
2013-09-24 20:55:00,60.9,49.5,29.13,East,81,2.0,4.0,66,0.00,,,0.00,WUHU216DAVISVP2,2013-09-25 00:55:00,
2013-09-24 20:56:00,60.9,49.5,29.13,East,91,6.0,6.0,66,0.00,,,0.00,WUHU216DAVISVP2,2013-09-25 00:56:00,
2013-09-24 20:59:00,60.9,49.5,29.13,East,100,3.0,6.0,66,0.00,,,0.00,WUHU216DAVISVP2,2013-09-25 00:59:00,
2013-09-24 21:00:00,60.9,49.5,29.13,ESE,102,4.0,7.0,66,0.00,,,0.00,WUHU216DAVISVP2,2013-09-25 01:00:00,
2013-09-24 21:01:00,60.9,49.9,29.13,ESE,102,5.0,7.0,67,0.00,,,0.00,WUHU216DAVISVP2,2013-09-25 01:01:00,
2013-09-24 21:04:00,60.8,49.9,29.13,ESE,102,4.0,7.0,67,0.00,,,0.00,WUHU216DAVISVP2,2013-09-25 01:04:00,
2013-09-24 21:06:00,60.7,49.8,29.13,ESE,102,1.0,7.0,67,0.00,,,0.00,WUHU216DAVISVP2,2013-09-25 01:06:00,
2013-09-24 21:07:00,60.6,49.7,29.13,ESE,102,4.0,7.0,67,0.00,,,0.00,WUHU216DAVISVP2,2013-09-25 01:07:00,
2013-09-24 21:09:00,60.4,49.5,29.12,East,100,7.0,8.0,67,0.00,,,0.00,WUHU216DAVISVP2,2013-09-25 01:09:00,
2013-09-24 21:11:00,60.4,49.5,29.12,ESE,105,4.0,8.0,67,0.00,,,0.00,WUHU216DAVISVP2,2013-09-25 01:11:00,
2013-09-24 21:12:00,60.3,49.4,29.12,ESE,106,4.0,8.0,67,0.00,,,0.00,WUHU216DAVISVP2,2013-09-25 01:12:00,
2013-09-24 21:14:00,60.2,49.7,29.13,ESE,102,6.0,8.0,68,0.00,,,0.00,WUHU216DAVISVP2,2013-09-25 01:14:00,
2013-09-24 21:16:00,60.2,49.7,29.12,ESE,102,2.0,8.0,68,0.00,,,0.00,WUHU216DAVISVP2,2013-09-25 01:16:00,
2013-09-24 21:17:00,60.1,49.6,29.12,ESE,102,0.0,8.0,68,0.00,,,0.00,WUHU216DAVISVP2,2013-09-25 01:17:00,
2013-09-24 21:19:00,59.9,50.1,29.12,ESE,102,5.0,8.0,70,0.00,,,0.00,WUHU216DAVISVP2,2013-09-25 01:19:00,
2013-09-24 21:20:00,59.8,50.0,29.12,ESE,102,1.0,8.0,70,0.00,,,0.00,WUHU216DAVISVP2,2013-09-25 01:20:00,
2013-09-24 21:21:00,59.7,49.9,29.12,ESE,102,0.0,8.0,70,0.00,,,0.00,WUHU216DAVISVP2,2013-09-25 01:21:00,
2013-09-24 21:22:00,59.6,49.8,29.12,ESE,102,0.0,8.0,70,0.00,,,0.00,WUHU216DAVISVP2,2013-09-25 01:22:00,
2013-09-24 21:24:00,59.3,49.5,29.12,ESE,114,0.0,8.0,70,0.00,,,0.00,WUHU216DAVISVP2,2013-09-25 01:24:00,
2013-09-24 21:25:00,59.3,49.5,29.12,ESE,114,0.0,8.0,70,0.00,,,0.00,WUHU216DAVISVP2,2013-09-25 01:25:00,
2013-09-24 21:26:00,59.2,49.8,29.13,ESE,110,3.0,8.0,71,0.00,,,0.00,WUHU216DAVISVP2,2013-09-25 01:26:00,
2013-09-24 21:27:00,59.1,49.7,29.13,ESE,110,0.0,8.0,71,0.00,,,0.00,WUHU216DAVISVP2,2013-09-25 01:27:00,
2013-09-24 21:29:00,58.9,49.9,29.13,ESE,110,0.0,7.0,72,0.00,,,0.00,WUHU216DAVISVP2,2013-09-25 01:29:00,
2013-09-24 21:30:00,58.8,49.8,29.13,ESE,110,0.0,7.0,72,0.00,,,0.00,WUHU216DAVISVP2,2013-09-25 01:30:00,
2013-09-24 21:31:00,58.7,49.7,29.13,ESE,110,0.0,7.0,72,0.00,,,0.00,WUHU216DAVISVP2,2013-09-25 01:31:00,
2013-09-24 21:32:00,58.7,50.1,29.13,ESE,110,2.0,7.0,73,0.00,,,0.00,WUHU216DAVISVP2,2013-09-25 01:32:00,
2013-09-24 21:34:00,58.4,49.9,29.12,ESE,110,1.0,6.0,73,0.00,,,0.00,WUHU216DAVISVP2,2013-09-25 01:34:00,
2013-09-24 21:35:00,58.3,50.2,29.13,ESE,110,2.0,6.0,74,0.00,,,0.00,WUHU216DAVISVP2,2013-09-25 01:35:00,
2013-09-24 21:37:00,58.2,50.1,29.13,ESE,109,1.0,6.0,74,0.00,,,0.00,WUHU216DAVISVP2,2013-09-25 01:37:00,
2013-09-24 21:40:00,57.9,50.1,29.13,ESE,109,0.0,5.0,75,0.00,,,0.00,WUHU216DAVISVP2,2013-09-25 01:40:00,
2013-09-24 21:42:00,57.7,50.3,29.13,ESE,109,0.0,5.0,76,0.00,,,0.00,WUHU216DAVISVP2,2013-09-25 01:42:00,
2013-09-24 21:45:00,57.4,50.0,29.12,ESE,110,0.0,5.0,76,0.00,,,0.00,WUHU216DAVISVP2,2013-09-25 01:45:00,
2013-09-24 21:46:00,57.4,50.0,29.12,ESE,110,0.0,5.0,76,0.00,,,0.00,WUHU216DAVISVP2,2013-09-25 01:46:00,
2013-09-24 21:47:00,57.3,50.1,29.12,ESE,109,0.0,5.0,77,0.00,,,0.00,WUHU216DAVISVP2,2013-09-25 01:47:00,
2013-09-24 21:48:00,57.3,50.1,29.12,ESE,109,4.0,5.0,77,0.00,,,0.00,WUHU216DAVISVP2,2013-09-25 01:48:00,
2013-09-24 21:50:00,57.1,50.0,29.12,ESE,109,4.0,5.0,77,0.00,,,0.00,WUHU216DAVISVP2,2013-09-25 01:50:00,
2013-09-24 21:51:00,57.1,50.0,29.12,ESE,109,1.0,5.0,77,0.00,,,0.00,WUHU216DAVISVP2,2013-09-25 01:51:00,
2013-09-24 21:52:00,57.1,50.0,29.12,ESE,109,1.0,5.0,77,0.00,,,0.00,WUHU216DAVISVP2,2013-09-25 01:52:00,
2013-09-24 21:53:00,57.1,50.0,29.12,ESE,109,1.0,5.0,77,0.00,,,0.00,WUHU216DAVISVP2,2013-09-25 01:53:00,
2013-09-24 21:55:00,57.1,50.0,29.12,ESE,109,2.0,6.0,77,0.00,,,0.00,WUHU216DAVISVP2,2013-09-25 01:55:00,
2013-09-24 21:56:00,57.1,50.0,29.12,ESE,109,1.0,6.0,77,0.00,,,0.00,WUHU216DAVISVP2,2013-09-25 01:56:00,
2013-09-24 21:57:00,57.1,50.0,29.12,ESE,109,4.0,6.0,77,0.00,,,0.00,WUHU216DAVISVP2,2013-09-25 01:57:00,
2013-09-24 21:58:00,57.2,50.1,29.12,ESE,109,5.0,6.0,77,0.00,,,0.00,WUHU216DAVISVP2,2013-09-25 01:58:00,
2013-09-24 22:00:00,57.2,49.7,29.12,ESE,109,4.0,7.0,76,0.00,,,0.00,WUHU216DAVISVP2,2013-09-25 02:00:00,
2013-09-24 22:01:00,57.3,49.8,29.13,ESE,119,2.0,7.0,76,0.00,,,0.00,WUHU216DAVISVP2,2013-09-25 02:01:00,
2013-09-24 22:02:00,57.3,49.4,29.12,ESE,118,2.0,7.0,75,0.00,,,0.00,WUHU216DAVISVP2,2013-09-25 02:02:00,
2013-09-24 22:03:00,57.3,49.4,29.12,ESE,118,2.0,7.0,75,0.00,,,0.00,WUHU216DAVISVP2,2013-09-25 02:03:00,
2013-09-24 22:06:00,57.4,49.5,29.12,ESE,106,4.0,7.0,75,0.00,,,0.00,WUHU216DAVISVP2,2013-09-25 02:06:00,
2013-09-24 22:07:00,57.4,49.5,29.12,ESE,106,0.0,7.0,75,0.00,,,0.00,WUHU216DAVISVP2,2013-09-25 02:07:00,
2013-09-24 22:08:00,57.4,49.5,29.12,ESE,106,4.0,7.0,75,0.00,,,0.00,WUHU216DAVISVP2,2013-09-25 02:08:00,
2013-09-24 22:11:00,57.4,49.5,29.12,ESE,106,0.0,7.0,75,0.00,,,0.00,WUHU216DAVISVP2,2013-09-25 02:11:00,
2013-09-24 22:12:00,57.5,49.6,29.12,ESE,106,3.0,7.0,75,0.00,,,0.00,WUHU216DAVISVP2,2013-09-25 02:12:00,
2013-09-24 22:13:00,57.4,49.5,29.12,ESE,106,2.0,7.0,75,0.00,,,0.00,WUHU216DAVISVP2,2013-09-25 02:13:00,
2013-09-24 22:16:00,57.3,49.5,29.13,ESE,106,1.0,7.0,75,0.00,,,0.00,WUHU216DAVISVP2,2013-09-25 02:16:00,
2013-09-24 22:17:00,57.3,49.5,29.13,ESE,106,0.0,7.0,75,0.00,,,0.00,WUHU216DAVISVP2,2013-09-25 02:17:00,
2013-09-24 22:18:00,57.2,49.4,29.13,ESE,106,0.0,6.0,75,0.00,,,0.00,WUHU216DAVISVP2,2013-09-25 02:18:00,
2013-09-24 22:19:00,57.2,49.4,29.13,ESE,106,1.0,6.0,75,0.00,,,0.00,WUHU216DAVISVP2,2013-09-25 02:19:00,
2013-09-24 22:21:00,57.1,49.3,29.13,ESE,106,3.0,6.0,75,0.00,,,0.00,WUHU216DAVISVP2,2013-09-25 02:21:00,
2013-09-24 22:22:00,57.1,49.7,29.13,ESE,106,1.0,6.0,76,0.00,,,0.00,WUHU216DAVISVP2,2013-09-25 02:22:00,
2013-09-24 22:23:00,57.1,49.7,29.13,ESE,106,0.0,5.0,76,0.00,,,0.00,WUHU216DAVISVP2,2013-09-25 02:23:00,
2013-09-24 22:24:00,57.0,49.5,29.13,ESE,106,1.0,5.0,76,0.00,,,0.00,WUHU216DAVISVP2,2013-09-25 02:24:00,
2013-09-24 22:26:00,56.9,49.4,29.13,ESE,106,0.0,5.0,76,0.00,,,0.00,WUHU216DAVISVP2,2013-09-25 02:26:00,
2013-09-24 22:27:00,56.9,49.8,29.12,ESE,106,1.0,5.0,77,0.00,,,0.00,WUHU216DAVISVP2,2013-09-25 02:27:00,
2013-09-24 22:28:00,56.8,49.7,29.13,ESE,106,2.0,4.0,77,0.00,,,0.00,WUHU216DAVISVP2,2013-09-25 02:28:00,
2013-09-24 22:29:00,56.8,49.7,29.13,ESE,106,1.0,4.0,77,0.00,,,0.00,WUHU216DAVISVP2,2013-09-25 02:29:00,
2013-09-24 22:31:00,56.6,49.5,29.12,ESE,106,2.0,5.0,77,0.00,,,0.00,WUHU216DAVISVP2,2013-09-25 02:31:00,
2013-09-24 22:33:00,56.5,49.4,29.13,ESE,106,2.0,5.0,77,0.00,,,0.00,WUHU216DAVISVP2,2013-09-25 02:33:00,
2013-09-24 22:34:00,56.5,49.4,29.13,ESE,106,2.0,5.0,77,0.00,,,0.00,WUHU216DAVISVP2,2013-09-25 02:34:00,
2013-09-24 22:36:00,56.4,49.3,29.13,ESE,106,3.0,5.0,77,0.00,,,0.00,WUHU216DAVISVP2,2013-09-25 02:36:00,
2013-09-24 22:38:00,56.4,49.3,29.13,ESE,106,0.0,5.0,77,0.00,,,0.00,WUHU216DAVISVP2,2013-09-25 02:38:00,
2013-09-24 22:39:00,56.4,49.3,29.13,ESE,106,0.0,5.0,77,0.00,,,0.00,WUHU216DAVISVP2,2013-09-25 02:39:00,
2013-09-24 22:41:00,56.3,49.2,29.13,ESE,106,1.0,5.0,77,0.00,,,0.00,WUHU216DAVISVP2,2013-09-25 02:41:00,
2013-09-24 22:43:00,56.3,49.6,29.13,ESE,106,2.0,5.0,78,0.00,,,0.00,WUHU216DAVISVP2,2013-09-25 02:43:00,
2013-09-24 22:44:00,56.3,49.3,29.13,ESE,106,0.0,5.0,77,0.00,,,0.00,WUHU216DAVISVP2,2013-09-25 02:44:00,
2013-09-24 22:46:00,56.3,49.3,29.13,ESE,106,1.0,5.0,77,0.00,,,0.00,WUHU216DAVISVP2,2013-09-25 02:46:00,
2013-09-24 22:48:00,56.3,49.3,29.13,ESE,106,1.0,5.0,77,0.00,,,0.00,WUHU216DAVISVP2,2013-09-25 02:48:00,
2013-09-24 22:49:00,56.4,49.4,29.13,ESE,106,1.0,5.0,77,0.00,,,0.00,WUHU216DAVISVP2,2013-09-25 02:49:00,
2013-09-24 22:50:00,56.3,49.3,29.13,ESE,106,1.0,5.0,77,0.00,,,0.00,WUHU216DAVISVP2,2013-09-25 02:50:00,
2013-09-24 22:51:00,56.3,49.3,29.14,ESE,102,1.0,7.0,77,0.00,,,0.00,WUHU216DAVISVP2,2013-09-25 02:51:00,
2013-09-24 22:53:00,56.3,49.3,29.13,ESE,103,5.0,7.0,77,0.00,,,0.00,WUHU216DAVISVP2,2013-09-25 02:53:00,
2013-09-24 22:54:00,56.3,49.3,29.13,ESE,110,4.0,7.0,77,0.00,,,0.00,WUHU216DAVISVP2,2013-09-25 02:54:00,
2013-09-24 22:55:00,56.4,49.4,29.13,ESE,105,2.0,7.0,77,0.00,,,0.00,WUHU216DAVISVP2,2013-09-25 02:55:00,
2013-09-24 22:56:00,56.4,48.9,29.13,ESE,106,2.0,7.0,76,0.00,,,0.00,WUHU216DAVISVP2,2013-09-25 02:56:00,
2013-09-24 22:58:00,56.4,49.3,29.13,East,95,2.0,7.0,77,0.00,,,0.00,WUHU216DAVISVP2,2013-09-25 02:58:00,
2013-09-24 22:59:00,56.4,49.3,29.13,East,95,2.0,7.0,77,0.00,,,0.00,WUHU216DAVISVP2,2013-09-25 02:59:00,
2013-09-24 23:00:00,56.4,49.3,29.13,East,95,1.0,7.0,77,0.00,,,0.00,WUHU216DAVISVP2,2013-09-25 03:00:00,
2013-09-24 23:01:00,56.3,49.2,29.13,East,97,4.0,7.0,77,0.00,,,0.00,WUHU216DAVISVP2,2013-09-25 03:01:00,
2013-09-24 23:04:00,56.3,49.2,29.13,ESE,120,4.0,7.0,77,0.00,,,0.00,WUHU216DAVISVP2,2013-09-25 03:04:00,
2013-09-24 23:05:00,56.3,49.2,29.13,ESE,119,2.0,7.0,77,0.00,,,0.00,WUHU216DAVISVP2,2013-09-25 03:05:00,
2013-09-24 23:06:00,56.3,49.2,29.13,ESE,116,3.0,7.0,77,0.00,,,0.00,WUHU216DAVISVP2,2013-09-25 03:06:00,
2013-09-24 23:09:00,56.3,49.3,29.13,ESE,117,4.0,7.0,77,0.00,,,0.00,WUHU216DAVISVP2,2013-09-25 03:09:00,
2013-09-24 23:10:00,56.3,49.3,29.12,ESE,116,2.0,7.0,77,0.00,,,0.00,WUHU216DAVISVP2,2013-09-25 03:10:00,
2013-09-24 23:11:00,56.3,49.3,29.13,ESE,117,2.0,7.0,77,0.00,,,0.00,WUHU216DAVISVP2,2013-09-25 03:11:00,
2013-09-24 23:14:00,56.3,49.3,29.13,East,101,2.0,7.0,77,0.00,,,0.00,WUHU216DAVISVP2,2013-09-25 03:14:00,
2013-09-24 23:15:00,56.3,49.3,29.13,ESE,120,3.0,7.0,77,0.00,,,0.00,WUHU216DAVISVP2,2013-09-25 03:15:00,
2013-09-24 23:16:00,56.3,49.3,29.13,ESE,110,3.0,7.0,77,0.00,,,0.00,WUHU216DAVISVP2,2013-09-25 03:16:00,
2013-09-24 23:20:00,56.3,49.2,29.13,ESE,110,0.0,7.0,77,0.00,,,0.00,WUHU216DAVISVP2,2013-09-25 03:20:00,
2013-09-24 23:21:00,56.3,49.2,29.13,ESE,104,0.0,7.0,77,0.00,,,0.00,WUHU216DAVISVP2,2013-09-25 03:21:00,
2013-09-24 23:25:00,56.3,49.3,29.13,ESE,118,5.0,7.0,77,0.00,,,0.00,WUHU216DAVISVP2,2013-09-25 03:25:00,
2013-09-24 23:26:00,56.3,49.3,29.13,SE,124,2.0,8.0,77,0.00,,,0.00,WUHU216DAVISVP2,2013-09-25 03:26:00,
2013-09-24 23:27:00,56.3,49.3,29.13,SE,131,3.0,8.0,77,0.00,,,0.00,WUHU216DAVISVP2,2013-09-25 03:27:00,
2013-09-24 23:30:00,56.3,49.3,29.13,ESE,112,5.0,8.0,77,0.00,,,0.00,WUHU216DAVISVP2,2013-09-25 03:30:00,
2013-09-24 23:31:00,56.2,49.2,29.13,East,99,5.0,8.0,77,0.00,,,0.00,WUHU216DAVISVP2,2013-09-25 03:31:00,
2013-09-24 23:32:00,56.2,49.2,29.13,East,99,5.0,8.0,77,0.00,,,0.00,WUHU216DAVISVP2,2013-09-25 03:32:00,
2013-09-24 23:35:00,56.3,49.3,29.13,ESE,114,5.0,8.0,77,0.00,,,0.00,WUHU216DAVISVP2,2013-09-25 03:35:00,
2013-09-24 23:36:00,56.3,49.3,29.13,ESE,104,7.0,9.0,77,0.00,,,0.00,WUHU216DAVISVP2,2013-09-25 03:36:00,
2013-09-24 23:37:00,56.3,49.3,29.13,East,95,5.0,9.0,77,0.00,,,0.00,WUHU216DAVISVP2,2013-09-25 03:37:00,
2013-09-24 23:41:00,56.4,49.4,29.13,ESE,120,4.0,9.0,77,0.00,,,0.00,WUHU216DAVISVP2,2013-09-25 03:41:00,
2013-09-24 23:42:00,56.3,49.3,29.13,ESE,114,2.0,9.0,77,0.00,,,0.00,WUHU216DAVISVP2,2013-09-25 03:42:00,
2013-09-24 23:46:00,56.2,49.1,29.13,ESE,116,2.0,9.0,77,0.00,,,0.00,WUHU216DAVISVP2,2013-09-25 03:46:00,
2013-09-24 23:47:00,56.1,49.0,29.13,ESE,116,5.0,9.0,77,0.00,,,0.00,WUHU216DAVISVP2,2013-09-25 03:47:00,
2013-09-24 23:51:00,55.9,48.8,29.13,ESE,117,3.0,9.0,77,0.00,,,0.00,WUHU216DAVISVP2,2013-09-25 03:51:00,
2013-09-24 23:52:00,55.9,49.1,29.13,ESE,117,4.0,9.0,78,0.00,,,0.00,WUHU216DAVISVP2,2013-09-25 03:52:00,
2013-09-24 23:56:00,55.6,48.8,29.13,SE,125,4.0,8.0,78,0.00,,,0.00,WUHU216DAVISVP2,2013-09-25 03:56:00,
2013-09-24 23:57:00,55.6,48.8,29.13,SSE,156,2.0,8.0,78,0.00,,,0.00,WUHU216DAVISVP2,2013-09-25 03:57:00,